Time,TemperatureF,DewpointF,PressureIn,WindDirection,WindDirectionDegrees,WindSpeedMPH,WindSpeedGustMPH,Humidity,HourlyPrecipIn,Conditions,Clouds,dailyrainin,SoftwareType,DateUTC
2013-10-14 00:00:00,57.9,48.2,30.32,NE,43,0.0,0.0,70,0.00,,,0.00,Wunderground v.1.15,2013-10-14 04:00:00,
2013-10-14 00:09:00,58.3,50.4,30.32,ENE,72,0.0,0.0,75,0.00,,,0.00,Wunderground v.1.15,2013-10-14 04:09:00,
2013-10-14 00:12:00,58.6,50.3,30.32,ENE,72,0.0,0.0,74,0.00,,,0.00,Wunderground v.1.15,2013-10-14 04:12:00,
2013-10-14 00:21:00,59.4,50.0,30.32,North,355,0.0,0.0,71,0.00,,,0.00,Wunderground v.1.15,2013-10-14 04:21:00,
2013-10-14 00:28:00,59.7,51.0,30.33,ENE,65,0.0,2.0,73,0.00,,,0.00,Wunderground v.1.15,2013-10-14 04:28:00,
2013-10-14 00:29:00,59.7,50.7,30.33,ENE,65,0.0,2.0,72,0.00,,,0.00,Wunderground v.1.15,2013-10-14 04:29:00,
2013-10-14 00:30:00,59.8,51.1,30.33,ENE,65,0.0,0.0,73,0.00,,,0.00,Wunderground v.1.15,2013-10-14 04:30:00,
2013-10-14 00:32:00,59.9,50.8,30.33,ENE,76,0.0,0.0,72,0.00,,,0.00,Wunderground v.1.15,2013-10-14 04:32:00,
2013-10-14 00:33:00,60.0,50.6,30.33,ENE,76,0.0,0.0,71,0.00,,,0.00,Wunderground v.1.15,2013-10-14 04:33:00,
2013-10-14 00:36:00,60.2,50.8,30.33,ENE,76,0.0,2.0,71,0.00,,,0.00,Wunderground v.1.15,2013-10-14 04:36:00,
2013-10-14 00:38:00,60.3,51.2,30.32,ENE,76,0.0,2.0,72,0.00,,,0.00,Wunderground v.1.15,2013-10-14 04:38:00,
2013-10-14 00:40:00,60.5,50.7,30.32,NE,42,1.0,1.0,70,0.00,,,0.00,Wunderground v.1.15,2013-10-14 04:40:00,
2013-10-14 00:49:00,61.3,51.4,30.32,ENE,57,0.0,2.0,70,0.00,,,0.00,Wunderground v.1.15,2013-10-14 04:49:00,
2013-10-14 01:03:00,56.2,48.0,30.31,NNE,27,0.0,1.0,74,0.00,,,0.00,Wunderground v.1.15,2013-10-14 05:03:00,
2013-10-14 01:08:00,55.9,47.7,30.30,NNE,28,0.0,1.0,74,0.00,,,0.00,Wunderground v.1.15,2013-10-14 05:08:00,
2013-10-14 01:12:00,63.2,53.3,30.32,SE,132,0.0,0.0,70,0.00,,,0.00,Wunderground v.1.15,2013-10-14 05:12:00,
2013-10-14 01:13:00,63.3,53.0,30.32,SE,132,0.0,0.0,69,0.00,,,0.00,Wunderground v.1.15,2013-10-14 05:13:00,
2013-10-14 01:17:00,55.9,47.7,30.30,East,86,0.0,0.0,74,0.00,,,0.00,Wunderground v.1.15,2013-10-14 05:17:00,
2013-10-14 01:22:00,64.2,53.8,30.31,ENE,66,0.0,1.0,69,0.00,,,0.00,Wunderground v.1.15,2013-10-14 05:22:00,
2013-10-14 01:24:00,55.8,47.3,30.30,North,5,0.0,0.0,73,0.00,,,0.00,Wunderground v.1.15,2013-10-14 05:24:00,
2013-10-14 01:28:00,64.6,54.2,30.31,ENE,66,0.0,2.0,69,0.00,,,0.00,Wunderground v.1.15,2013-10-14 05:28:00,
2013-10-14 01:30:00,55.7,47.5,30.30,ENE,61,0.0,0.0,74,0.00,,,0.00,Wunderground v.1.15,2013-10-14 05:30:00,
2013-10-14 01:31:00,64.9,54.5,30.31,NE,34,0.0,1.0,69,0.00,,,0.00,Wunderground v.1.15,2013-10-14 05:31:00,
2013-10-14 01:35:00,65.3,54.9,30.31,ENE,69,0.0,1.0,69,0.00,,,0.00,Wunderground v.1.15,2013-10-14 05:35:00,
2013-10-14 01:36:00,55.5,47.0,30.30,ENE,61,0.0,1.0,73,0.00,,,0.00,Wunderground v.1.15,2013-10-14 05:36:00,
2013-10-14 01:41:00,55.5,47.3,30.30,ENE,61,0.0,1.0,74,0.00,,,0.00,Wunderground v.1.15,2013-10-14 05:41:00,
2013-10-14 01:44:00,66.1,55.2,30.30,NE,38,0.0,1.0,68,0.00,,,0.00,Wunderground v.1.15,2013-10-14 05:44:00,
2013-10-14 01:51:00,66.5,55.6,30.30,NE,38,1.0,1.0,68,0.00,,,0.00,Wunderground v.1.15,2013-10-14 05:51:00,
2013-10-14 01:52:00,55.1,46.6,30.30,ENE,61,0.0,0.0,73,0.00,,,0.00,Wunderground v.1.15,2013-10-14 05:52:00,
2013-10-14 01:57:00,66.6,55.7,30.30,NE,52,1.0,2.0,68,0.00,,,0.00,Wunderground v.1.15,2013-10-14 05:57:00,
2013-10-14 01:59:00,54.8,46.7,30.30,ENE,62,0.0,0.0,74,0.00,,,0.00,Wunderground v.1.15,2013-10-14 05:59:00,
2013-10-14 02:02:00,66.9,56.8,30.30,NE,55,1.0,2.0,70,0.00,,,0.00,Wunderground v.1.15,2013-10-14 06:02:00,
2013-10-14 02:04:00,54.6,47.2,30.30,ENE,62,0.0,0.0,76,0.00,,,0.00,Wunderground v.1.15,2013-10-14 06:04:00,
2013-10-14 02:09:00,54.5,47.4,30.30,ENE,62,0.0,0.0,77,0.00,,,0.00,Wunderground v.1.15,2013-10-14 06:09:00,
2013-10-14 02:16:00,54.2,47.8,30.30,ENE,62,0.0,0.0,79,0.00,,,0.00,Wunderground v.1.15,2013-10-14 06:16:00,
2013-10-14 02:18:00,54.1,47.7,30.30,ENE,62,0.0,0.0,79,0.00,,,0.00,Wunderground v.1.15,2013-10-14 06:18:00,
2013-10-14 02:21:00,53.9,47.9,30.30,ENE,62,0.0,0.0,80,0.00,,,0.00,Wunderground v.1.15,2013-10-14 06:21:00,
2013-10-14 02:23:00,53.8,47.8,30.31,ENE,62,0.0,0.0,80,0.00,,,0.00,Wunderground v.1.15,2013-10-14 06:23:00,
2013-10-14 02:27:00,53.5,46.8,30.31,ENE,62,0.0,0.0,78,0.00,,,0.00,Wunderground v.1.15,2013-10-14 06:27:00,
2013-10-14 02:28:00,53.5,47.1,30.31,ENE,62,0.0,0.0,79,0.00,,,0.00,Wunderground v.1.15,2013-10-14 06:28:00,
2013-10-14 02:30:00,53.4,46.4,30.31,ENE,62,0.0,0.0,77,0.00,,,0.00,Wunderground v.1.15,2013-10-14 06:30:00,
2013-10-14 02:36:00,53.1,46.4,30.31,ENE,62,0.0,0.0,78,0.00,,,0.00,Wunderground v.1.15,2013-10-14 06:36:00,
2013-10-14 02:41:00,52.9,46.2,30.31,ENE,62,0.0,0.0,78,0.00,,,0.00,Wunderground v.1.15,2013-10-14 06:41:00,
2013-10-14 02:42:00,52.9,46.2,30.31,ENE,62,0.0,0.0,78,0.00,,,0.00,Wunderground v.1.15,2013-10-14 06:42:00,
2013-10-14 02:44:00,52.8,46.5,30.31,ENE,62,0.0,0.0,79,0.00,,,0.00,Wunderground v.1.15,2013-10-14 06:44:00,
2013-10-14 02:46:00,52.7,46.4,30.31,ENE,62,0.0,0.0,79,0.00,,,0.00,Wunderground v.1.15,2013-10-14 06:46:00,
2013-10-14 02:48:00,52.7,47.0,30.31,ENE,62,0.0,0.0,81,0.00,,,0.00,Wunderground v.1.15,2013-10-14 06:48:00,
2013-10-14 02:50:00,52.6,46.9,30.31,North,5,0.0,2.0,81,0.00,,,0.00,Wunderground v.1.15,2013-10-14 06:50:00,
2013-10-14 02:54:00,52.5,46.5,30.31,North,9,0.0,0.0,80,0.00,,,0.00,Wunderground v.1.15,2013-10-14 06:54:00,
2013-10-14 02:58:00,52.4,46.1,30.31,North,9,0.0,0.0,79,0.00,,,0.00,Wunderground v.1.15,2013-10-14 06:58:00,
2013-10-14 02:59:00,52.4,45.7,30.31,North,9,0.0,0.0,78,0.00,,,0.00,Wunderground v.1.15,2013-10-14 06:59:00,
2013-10-14 03:00:00,52.4,45.7,30.31,North,9,0.0,0.0,78,0.00,,,0.00,Wunderground v.1.15,2013-10-14 07:00:00,
2013-10-14 03:05:00,52.6,45.9,30.31,WSW,246,0.0,2.0,78,0.00,,,0.00,Wunderground v.1.15,2013-10-14 07:05:00,
2013-10-14 03:06:00,52.7,46.4,30.31,WSW,246,0.0,2.0,79,0.00,,,0.00,Wunderground v.1.15,2013-10-14 07:06:00,
2013-10-14 03:07:00,52.7,46.0,30.31,WSW,247,0.0,2.0,78,0.00,,,0.00,Wunderground v.1.15,2013-10-14 07:07:00,
2013-10-14 03:08:00,52.7,46.0,30.31,WSW,254,0.0,2.0,78,0.00,,,0.00,Wunderground v.1.15,2013-10-14 07:08:00,
2013-10-14 03:09:00,52.7,45.7,30.31,WNW,298,0.0,2.0,77,0.00,,,0.00,Wunderground v.1.15,2013-10-14 07:09:00,
2013-10-14 03:11:00,52.8,46.1,30.31,WNW,298,0.0,2.0,78,0.00,,,0.00,Wunderground v.1.15,2013-10-14 07:11:00,
2013-10-14 03:13:00,52.9,45.9,30.32,North,349,0.0,2.0,77,0.00,,,0.00,Wunderground v.1.15,2013-10-14 07:13:00,
2013-10-14 03:14:00,52.9,45.9,30.31,North,349,0.0,0.0,77,0.00,,,0.00,Wunderground v.1.15,2013-10-14 07:14:00,
2013-10-14 03:16:00,53.0,46.0,30.31,North,349,0.0,0.0,77,0.00,,,0.00,Wunderground v.1.15,2013-10-14 07:16:00,
2013-10-14 03:17:00,53.0,46.3,30.32,North,349,0.0,1.0,78,0.00,,,0.00,Wunderground v.1.15,2013-10-14 07:17:00,
2013-10-14 03:19:00,53.1,46.4,30.32,North,349,0.0,1.0,78,0.00,,,0.00,Wunderground v.1.15,2013-10-14 07:19:00,
2013-10-14 03:21:00,53.0,46.0,30.32,North,355,0.0,1.0,77,0.00,,,0.00,Wunderground v.1.15,2013-10-14 07:21:00,
2013-10-14 03:22:00,53.0,46.0,30.32,North,355,0.0,1.0,77,0.00,,,0.00,Wunderground v.1.15,2013-10-14 07:22:00,
2013-10-14 03:24:00,52.9,46.2,30.32,NNE,12,0.0,0.0,78,0.00,,,0.00,Wunderground v.1.15,2013-10-14 07:24:00,
2013-10-14 03:26:00,52.9,46.2,30.31,NNW,345,0.0,2.0,78,0.00,,,0.00,Wunderground v.1.15,2013-10-14 07:26:00,
2013-10-14 03:27:00,52.9,46.2,30.31,North,355,0.0,3.0,78,0.00,,,0.00,Wunderground v.1.15,2013-10-14 07:27:00,
2013-10-14 03:28:00,52.9,46.2,30.32,NNE,18,1.0,3.0,78,0.00,,,0.00,Wunderground v.1.15,2013-10-14 07:28:00,
2013-10-14 03:29:00,52.8,45.8,30.32,North,9,1.0,3.0,77,0.00,,,0.00,Wunderground v.1.15,2013-10-14 07:29:00,
2013-10-14 03:32:00,52.9,45.9,30.32,North,9,1.0,3.0,77,0.00,,,0.00,Wunderground v.1.15,2013-10-14 07:32:00,
2013-10-14 03:33:00,52.9,45.9,30.32,North,9,1.0,3.0,77,0.00,,,0.00,Wunderground v.1.15,2013-10-14 07:33:00,
2013-10-14 03:35:00,53.0,46.3,30.32,North,355,1.0,2.0,78,0.00,,,0.00,Wunderground v.1.15,2013-10-14 07:35:00,
2013-10-14 03:36:00,53.0,46.0,30.32,North,355,0.0,2.0,77,0.00,,,0.00,Wunderground v.1.15,2013-10-14 07:36:00,
2013-10-14 03:40:00,52.9,45.5,30.32,North,9,0.0,2.0,76,0.00,,,0.00,Wunderground v.1.15,2013-10-14 07:40:00,
2013-10-14 03:42:00,52.9,45.5,30.32,ENE,64,0.0,2.0,76,0.00,,,0.00,Wunderground v.1.15,2013-10-14 07:42:00,
2013-10-14 03:43:00,52.9,45.5,30.32,NE,52,0.0,2.0,76,0.00,,,0.00,Wunderground v.1.15,2013-10-14 07:43:00,
2013-10-14 03:44:00,52.9,45.5,30.32,North,355,1.0,2.0,76,0.00,,,0.00,Wunderground v.1.15,2013-10-14 07:44:00,
2013-10-14 03:49:00,52.9,45.9,30.32,NNW,346,1.0,2.0,77,0.00,,,0.00,Wunderground v.1.15,2013-10-14 07:49:00,
2013-10-14 03:50:00,52.9,45.2,30.32,NNW,346,1.0,2.0,75,0.00,,,0.00,Wunderground v.1.15,2013-10-14 07:50:00,
2013-10-14 03:51:00,52.9,45.5,30.32,North,355,0.0,2.0,76,0.00,,,0.00,Wunderground v.1.15,2013-10-14 07:51:00,
2013-10-14 03:52:00,52.9,45.2,30.32,North,355,0.0,2.0,75,0.00,,,0.00,Wunderground v.1.15,2013-10-14 07:52:00,
2013-10-14 03:53:00,52.9,45.2,30.32,North,355,0.0,2.0,75,0.00,,,0.00,Wunderground v.1.15,2013-10-14 07:53:00,
2013-10-14 03:55:00,52.9,45.2,30.32,North,355,0.0,0.0,75,0.00,,,0.00,Wunderground v.1.15,2013-10-14 07:55:00,
2013-10-14 03:56:00,52.9,44.8,30.32,North,355,0.0,0.0,74,0.00,,,0.00,Wunderground v.1.15,2013-10-14 07:56:00,
2013-10-14 03:58:00,52.8,45.4,30.32,North,355,0.0,0.0,76,0.00,,,0.00,Wunderground v.1.15,2013-10-14 07:58:00,
2013-10-14 04:00:00,52.9,45.5,30.32,North,355,0.0,0.0,76,0.00,,,0.00,Wunderground v.1.15,2013-10-14 08:00:00,
2013-10-14 04:02:00,52.8,45.4,30.31,North,355,0.0,0.0,76,0.00,,,0.00,Wunderground v.1.15,2013-10-14 08:02:00,
2013-10-14 04:03:00,52.8,45.4,30.31,NNW,348,0.0,0.0,76,0.00,,,0.00,Wunderground v.1.15,2013-10-14 08:03:00,
2013-10-14 04:04:00,52.8,45.4,30.31,NNW,348,0.0,0.0,76,0.00,,,0.00,Wunderground v.1.15,2013-10-14 08:04:00,
2013-10-14 04:06:00,52.8,45.4,30.31,NNW,348,0.0,0.0,76,0.00,,,0.00,Wunderground v.1.15,2013-10-14 08:06:00,
2013-10-14 04:07:00,52.7,45.3,30.31,NNW,348,0.0,0.0,76,0.00,,,0.00,Wunderground v.1.15,2013-10-14 08:07:00,
2013-10-14 04:09:00,52.7,45.3,30.31,NE,38,0.0,0.0,76,0.00,,,0.00,Wunderground v.1.15,2013-10-14 08:09:00,
2013-10-14 04:10:00,52.6,45.2,30.31,NE,38,0.0,0.0,76,0.00,,,0.00,Wunderground v.1.15,2013-10-14 08:10:00,
2013-10-14 04:12:00,52.6,45.6,30.31,NE,38,0.0,0.0,77,0.00,,,0.00,Wunderground v.1.15,2013-10-14 08:12:00,
2013-10-14 04:13:00,52.5,45.5,30.31,NE,38,0.0,0.0,77,0.00,,,0.00,Wunderground v.1.15,2013-10-14 08:13:00,
2013-10-14 04:14:00,52.5,45.5,30.31,NE,38,0.0,0.0,77,0.00,,,0.00,Wunderground v.1.15,2013-10-14 08:14:00,
2013-10-14 04:16:00,52.4,45.7,30.31,NE,38,0.0,0.0,78,0.00,,,0.00,Wunderground v.1.15,2013-10-14 08:16:00,
2013-10-14 04:18:00,52.4,45.4,30.31,NE,38,0.0,0.0,77,0.00,,,0.00,Wunderground v.1.15,2013-10-14 08:18:00,
2013-10-14 04:20:00,52.3,45.6,30.31,NE,38,0.0,0.0,78,0.00,,,0.00,Wunderground v.1.15,2013-10-14 08:20:00,
2013-10-14 04:22:00,52.2,45.5,30.31,NNW,348,0.0,2.0,78,0.00,,,0.00,Wunderground v.1.15,2013-10-14 08:22:00,
2013-10-14 04:26:00,52.1,45.4,30.32,North,349,0.0,0.0,78,0.00,,,0.00,Wunderground v.1.15,2013-10-14 08:26:00,
2013-10-14 04:27:00,52.1,45.4,30.32,North,349,0.0,0.0,78,0.00,,,0.00,Wunderground v.1.15,2013-10-14 08:27:00,
2013-10-14 04:28:00,52.1,45.4,30.32,NNE,25,0.0,0.0,78,0.00,,,0.00,Wunderground v.1.15,2013-10-14 08:28:00,
2013-10-14 04:30:00,52.0,45.4,30.32,NNE,25,0.0,0.0,78,0.00,,,0.00,Wunderground v.1.15,2013-10-14 08:30:00,
2013-10-14 04:32:00,51.9,45.3,30.32,North,5,0.0,0.0,78,0.00,,,0.00,Wunderground v.1.15,2013-10-14 08:32:00,
2013-10-14 04:34:00,52.0,45.4,30.32,North,5,0.0,0.0,78,0.00,,,0.00,Wunderground v.1.15,2013-10-14 08:34:00,
2013-10-14 04:36:00,52.0,45.7,30.32,North,5,0.0,0.0,79,0.00,,,0.00,Wunderground v.1.15,2013-10-14 08:36:00,
2013-10-14 04:39:00,51.9,45.6,30.32,North,5,0.0,0.0,79,0.00,,,0.00,Wunderground v.1.15,2013-10-14 08:39:00,
2013-10-14 04:41:00,51.8,45.5,30.32,ENE,64,0.0,1.0,79,0.00,,,0.00,Wunderground v.1.15,2013-10-14 08:41:00,
2013-10-14 04:44:00,51.8,45.2,30.32,ENE,63,0.0,0.0,78,0.00,,,0.00,Wunderground v.1.15,2013-10-14 08:44:00,
2013-10-14 04:45:00,51.7,45.1,30.32,NW,320,0.0,0.0,78,0.00,,,0.00,Wunderground v.1.15,2013-10-14 08:45:00,
2013-10-14 04:46:00,51.7,45.4,30.32,NW,320,0.0,0.0,79,0.00,,,0.00,Wunderground v.1.15,2013-10-14 08:46:00,
2013-10-14 04:50:00,51.6,45.0,30.32,NE,47,0.0,1.0,78,0.00,,,0.00,Wunderground v.1.15,2013-10-14 08:50:00,
2013-10-14 04:51:00,51.6,45.3,30.32,NE,47,0.0,1.0,79,0.00,,,0.00,Wunderground v.1.15,2013-10-14 08:51:00,
2013-10-14 04:52:00,51.6,45.3,30.32,NE,47,0.0,1.0,79,0.00,,,0.00,Wunderground v.1.15,2013-10-14 08:52:00,
2013-10-14 04:54:00,51.5,44.9,30.32,ENE,59,0.0,0.0,78,0.00,,,0.00,Wunderground v.1.15,2013-10-14 08:54:00,
2013-10-14 04:56:00,51.5,45.2,30.32,ENE,59,0.0,0.0,79,0.00,,,0.00,Wunderground v.1.15,2013-10-14 08:56:00,
2013-10-14 04:57:00,51.5,45.5,30.32,ENE,59,0.0,0.0,80,0.00,,,0.00,Wunderground v.1.15,2013-10-14 08:57:00,
2013-10-14 04:58:00,51.5,45.2,30.32,ENE,59,0.0,0.0,79,0.00,,,0.00,Wunderground v.1.15,2013-10-14 08:58:00,
2013-10-14 05:00:00,51.4,45.1,30.32,ENE,59,0.0,0.0,79,0.00,,,0.00,Wunderground v.1.15,2013-10-14 09:00:00,
2013-10-14 05:02:00,51.4,45.4,30.32,ENE,59,0.0,0.0,80,0.00,,,0.00,Wunderground v.1.15,2013-10-14 09:02:00,
2013-10-14 05:04:00,51.3,45.3,30.32,ENE,59,0.0,0.0,80,0.00,,,0.00,Wunderground v.1.15,2013-10-14 09:04:00,
2013-10-14 05:05:00,51.3,45.3,30.32,ENE,59,0.0,1.0,80,0.00,,,0.00,Wunderground v.1.15,2013-10-14 09:05:00,
2013-10-14 05:07:00,51.3,45.0,30.32,ENE,59,0.0,1.0,79,0.00,,,0.00,Wunderground v.1.15,2013-10-14 09:07:00,
2013-10-14 05:08:00,51.3,45.0,30.32,ENE,59,0.0,1.0,79,0.00,,,0.00,Wunderground v.1.15,2013-10-14 09:08:00,
2013-10-14 05:09:00,51.3,45.0,30.32,ENE,59,0.0,1.0,79,0.00,,,0.00,Wunderground v.1.15,2013-10-14 09:09:00,
2013-10-14 05:12:00,51.3,45.0,30.32,North,5,0.0,1.0,79,0.00,,,0.00,Wunderground v.1.15,2013-10-14 09:12:00,
2013-10-14 05:14:00,51.3,45.0,30.32,NE,44,0.0,0.0,79,0.00,,,0.00,Wunderground v.1.15,2013-10-14 09:14:00,
2013-10-14 05:18:00,51.3,45.0,30.32,NE,39,0.0,2.0,79,0.00,,,0.00,Wunderground v.1.15,2013-10-14 09:18:00,
2013-10-14 05:19:00,51.3,45.0,30.32,NE,39,0.0,2.0,79,0.00,,,0.00,Wunderground v.1.15,2013-10-14 09:19:00,
2013-10-14 05:21:00,51.3,45.3,30.32,NE,54,0.0,2.0,80,0.00,,,0.00,Wunderground v.1.15,2013-10-14 09:21:00,
2013-10-14 05:23:00,51.3,45.0,30.32,NE,35,0.0,2.0,79,0.00,,,0.00,Wunderground v.1.15,2013-10-14 09:23:00,
2013-10-14 05:24:00,51.3,45.0,30.32,NE,55,0.0,0.0,79,0.00,,,0.00,Wunderground v.1.15,2013-10-14 09:24:00,
2013-10-14 05:27:00,51.4,45.1,30.32,NE,55,0.0,2.0,79,0.00,,,0.00,Wunderground v.1.15,2013-10-14 09:27:00,
2013-10-14 05:30:00,51.5,45.2,30.32,NE,55,0.0,2.0,79,0.00,,,0.00,Wunderground v.1.15,2013-10-14 09:30:00,
2013-10-14 05:31:00,51.5,45.2,30.32,NE,55,0.0,2.0,79,0.00,,,0.00,Wunderground v.1.15,2013-10-14 09:31:00,
2013-10-14 05:33:00,51.5,45.2,30.32,NE,55,0.0,2.0,79,0.00,,,0.00,Wunderground v.1.15,2013-10-14 09:33:00,
2013-10-14 05:34:00,51.4,45.1,30.32,NE,55,0.0,0.0,79,0.00,,,0.00,Wunderground v.1.15,2013-10-14 09:34:00,
2013-10-14 05:36:00,51.4,45.1,30.32,NE,55,0.0,0.0,79,0.00,,,0.00,Wunderground v.1.15,2013-10-14 09:36:00,
2013-10-14 05:38:00,51.4,45.1,30.32,NE,55,0.0,0.0,79,0.00,,,0.00,Wunderground v.1.15,2013-10-14 09:38:00,
2013-10-14 05:39:00,51.4,45.1,30.32,NE,55,0.0,0.0,79,0.00,,,0.00,Wunderground v.1.15,2013-10-14 09:39:00,
2013-10-14 05:40:00,51.3,45.0,30.32,NE,55,0.0,0.0,79,0.00,,,0.00,Wunderground v.1.15,2013-10-14 09:40:00,
2013-10-14 05:44:00,51.2,44.9,30.32,NE,55,0.0,0.0,79,0.00,,,0.00,Wunderground v.1.15,2013-10-14 09:44:00,
2013-10-14 05:46:00,51.2,45.2,30.32,NE,55,0.0,0.0,80,0.00,,,0.00,Wunderground v.1.15,2013-10-14 09:46:00,
2013-10-14 05:47:00,51.2,45.2,30.32,NE,55,0.0,0.0,80,0.00,,,0.00,Wunderground v.1.15,2013-10-14 09:47:00,
2013-10-14 05:49:00,51.2,45.6,30.32,NE,55,0.0,0.0,81,0.00,,,0.00,Wunderground v.1.15,2013-10-14 09:49:00,
2013-10-14 05:50:00,51.2,45.6,30.32,NE,55,0.0,0.0,81,0.00,,,0.00,Wunderground v.1.15,2013-10-14 09:50:00,
2013-10-14 05:51:00,51.2,45.6,30.32,NE,55,0.0,0.0,81,0.00,,,0.00,Wunderground v.1.15,2013-10-14 09:51:00,
2013-10-14 05:54:00,51.1,45.5,30.32,NE,55,0.0,0.0,81,0.00,,,0.00,Wunderground v.1.15,2013-10-14 09:54:00,
2013-10-14 05:55:00,51.1,45.5,30.32,NE,55,0.0,0.0,81,0.00,,,0.00,Wunderground v.1.15,2013-10-14 09:55:00,
2013-10-14 05:56:00,51.1,45.5,30.32,NE,55,0.0,0.0,81,0.00,,,0.00,Wunderground v.1.15,2013-10-14 09:56:00,
2013-10-14 05:58:00,51.0,45.4,30.32,NE,55,0.0,0.0,81,0.00,,,0.00,Wunderground v.1.15,2013-10-14 09:58:00,
2013-10-14 05:59:00,51.0,45.4,30.32,NE,55,0.0,0.0,81,0.00,,,0.00,Wunderground v.1.15,2013-10-14 09:59:00,
2013-10-14 06:00:00,50.9,45.3,30.32,NE,55,0.0,0.0,81,0.00,,,0.00,Wunderground v.1.15,2013-10-14 10:00:00,
2013-10-14 06:04:00,50.8,45.5,30.32,NE,55,0.0,0.0,82,0.00,,,0.00,Wunderground v.1.15,2013-10-14 10:04:00,
2013-10-14 06:06:00,50.7,45.4,30.32,NE,55,0.0,0.0,82,0.00,,,0.00,Wunderground v.1.15,2013-10-14 10:06:00,
2013-10-14 06:07:00,50.7,45.4,30.32,NE,55,0.0,0.0,82,0.00,,,0.00,Wunderground v.1.15,2013-10-14 10:07:00,
2013-10-14 06:09:00,50.6,45.6,30.32,NE,55,0.0,0.0,83,0.00,,,0.00,Wunderground v.1.15,2013-10-14 10:09:00,
2013-10-14 06:10:00,50.6,45.6,30.32,NE,55,0.0,0.0,83,0.00,,,0.00,Wunderground v.1.15,2013-10-14 10:10:00,
2013-10-14 06:11:00,50.5,45.5,30.32,NE,55,0.0,0.0,83,0.00,,,0.00,Wunderground v.1.15,2013-10-14 10:11:00,
2013-10-14 06:12:00,50.5,45.5,30.32,NE,55,0.0,0.0,83,0.00,,,0.00,Wunderground v.1.15,2013-10-14 10:12:00,
2013-10-14 06:15:00,50.3,45.3,30.32,NE,48,0.0,0.0,83,0.00,,,0.00,Wunderground v.1.15,2013-10-14 10:15:00,
2013-10-14 06:16:00,50.3,45.3,30.32,NE,48,0.0,0.0,83,0.00,,,0.00,Wunderground v.1.15,2013-10-14 10:16:00,
2013-10-14 06:18:00,50.2,44.9,30.32,NE,48,0.0,0.0,82,0.00,,,0.00,Wunderground v.1.15,2013-10-14 10:18:00,
2013-10-14 06:19:00,50.1,44.8,30.32,NE,48,0.0,0.0,82,0.00,,,0.00,Wunderground v.1.15,2013-10-14 10:19:00,
2013-10-14 06:20:00,50.1,45.1,30.32,NE,48,0.0,0.0,83,0.00,,,0.00,Wunderground v.1.15,2013-10-14 10:20:00,
2013-10-14 06:22:00,50.0,45.0,30.33,NE,48,0.0,0.0,83,0.00,,,0.00,Wunderground v.1.15,2013-10-14 10:22:00,
2013-10-14 06:23:00,50.0,45.0,30.32,NE,48,0.0,0.0,83,0.00,,,0.00,Wunderground v.1.15,2013-10-14 10:23:00,
2013-10-14 06:24:00,49.9,45.3,30.32,NE,48,0.0,0.0,84,0.00,,,0.00,Wunderground v.1.15,2013-10-14 10:24:00,
2013-10-14 06:25:00,49.9,45.3,30.32,NE,48,0.0,0.0,84,0.00,,,0.00,Wunderground v.1.15,2013-10-14 10:25:00,
2013-10-14 06:26:00,49.9,45.3,30.32,NE,48,0.0,0.0,84,0.00,,,0.00,Wunderground v.1.15,2013-10-14 10:26:00,
2013-10-14 06:29:00,49.9,45.6,30.32,NE,48,0.0,0.0,85,0.00,,,0.00,Wunderground v.1.15,2013-10-14 10:29:00,
2013-10-14 06:30:00,49.9,45.6,30.32,NE,48,0.0,0.0,85,0.00,,,0.00,Wunderground v.1.15,2013-10-14 10:30:00,
2013-10-14 06:31:00,49.8,45.5,30.33,NE,48,0.0,0.0,85,0.00,,,0.00,Wunderground v.1.15,2013-10-14 10:31:00,
2013-10-14 06:32:00,49.8,45.5,30.33,NE,48,0.0,0.0,85,0.00,,,0.00,Wunderground v.1.15,2013-10-14 10:32:00,
2013-10-14 06:33:00,49.8,45.5,30.33,NE,48,0.0,0.0,85,0.00,,,0.00,Wunderground v.1.15,2013-10-14 10:33:00,
2013-10-14 06:37:00,67.7,59.1,30.20,NNE,26,0.0,0.0,74,0.00,,,0.00,Wunderground v.1.15,2013-10-14 10:37:00,
2013-10-14 06:38:00,49.6,45.3,30.33,NE,48,0.0,0.0,85,0.00,,,0.00,Wunderground v.1.15,2013-10-14 10:38:00,
2013-10-14 06:39:00,49.6,45.3,30.33,NE,48,0.0,0.0,85,0.00,,,0.00,Wunderground v.1.15,2013-10-14 10:39:00,
2013-10-14 06:40:00,49.5,45.2,30.33,NE,48,0.0,0.0,85,0.00,,,0.00,Wunderground v.1.15,2013-10-14 10:40:00,
2013-10-14 06:42:00,49.4,45.1,30.32,NE,48,0.0,0.0,85,0.00,,,0.00,Wunderground v.1.15,2013-10-14 10:42:00,
2013-10-14 06:43:00,49.4,45.1,30.32,NE,48,0.0,0.0,85,0.00,,,0.00,Wunderground v.1.15,2013-10-14 10:43:00,
2013-10-14 06:45:00,49.2,44.9,30.32,NE,48,0.0,0.0,85,0.00,,,0.00,Wunderground v.1.15,2013-10-14 10:45:00,
2013-10-14 06:46:00,49.2,44.9,30.32,NE,48,0.0,0.0,85,0.00,,,0.00,Wunderground v.1.15,2013-10-14 10:46:00,
2013-10-14 06:47:00,49.2,44.9,30.32,NE,48,0.0,0.0,85,0.00,,,0.00,Wunderground v.1.15,2013-10-14 10:47:00,
2013-10-14 06:48:00,49.1,44.8,30.32,NE,48,0.0,0.0,85,0.00,,,0.00,Wunderground v.1.15,2013-10-14 10:48:00,
2013-10-14 06:50:00,49.1,44.8,30.32,NE,48,0.0,0.0,85,0.00,,,0.00,Wunderground v.1.15,2013-10-14 10:50:00,
2013-10-14 06:51:00,49.0,45.0,30.32,NE,48,0.0,0.0,86,0.00,,,0.00,Wunderground v.1.15,2013-10-14 10:51:00,
2013-10-14 06:52:00,49.0,45.0,30.32,NE,48,0.0,0.0,86,0.00,,,0.00,Wunderground v.1.15,2013-10-14 10:52:00,
2013-10-14 06:53:00,67.6,60.1,30.20,NNE,26,0.0,0.0,77,0.00,,,0.00,Wunderground v.1.15,2013-10-14 10:53:00,
2013-10-14 06:55:00,48.9,45.2,30.32,NE,48,0.0,0.0,87,0.00,,,0.00,Wunderground v.1.15,2013-10-14 10:55:00,
2013-10-14 06:58:00,48.8,45.1,30.32,NE,48,0.0,0.0,87,0.00,,,0.00,Wunderground v.1.15,2013-10-14 10:58:00,
2013-10-14 06:59:00,67.7,60.2,30.19,NNE,26,0.0,0.0,77,0.00,,,0.00,Wunderground v.1.15,2013-10-14 10:59:00,
2013-10-14 07:00:00,48.7,45.0,30.32,NE,48,0.0,0.0,87,0.00,,,0.00,Wunderground v.1.15,2013-10-14 11:00:00,
2013-10-14 07:01:00,67.7,60.2,30.19,NNE,26,0.0,0.0,77,0.00,,,0.00,Wunderground v.1.15,2013-10-14 11:01:00,
2013-10-14 07:05:00,48.5,44.5,30.32,NE,48,0.0,0.0,86,0.00,,,0.00,Wunderground v.1.15,2013-10-14 11:05:00,
2013-10-14 07:06:00,48.5,44.5,30.32,NE,48,0.0,0.0,86,0.00,,,0.00,Wunderground v.1.15,2013-10-14 11:06:00,
2013-10-14 07:08:00,48.5,44.5,30.32,NE,48,0.0,0.0,86,0.00,,,0.00,Wunderground v.1.15,2013-10-14 11:08:00,
2013-10-14 07:09:00,48.4,44.4,30.32,NE,48,0.0,0.0,86,0.00,,,0.00,Wunderground v.1.15,2013-10-14 11:09:00,
2013-10-14 07:12:00,48.4,44.7,30.32,NE,48,0.0,0.0,87,0.00,,,0.00,Wunderground v.1.15,2013-10-14 11:12:00,
2013-10-14 07:14:00,48.4,44.7,30.32,NE,48,0.0,0.0,87,0.00,,,0.00,Wunderground v.1.15,2013-10-14 11:14:00,
2013-10-14 07:15:00,48.4,44.7,30.33,NE,48,0.0,0.0,87,0.00,,,0.00,Wunderground v.1.15,2013-10-14 11:15:00,
2013-10-14 07:16:00,48.4,45.0,30.33,NE,48,0.0,0.0,88,0.00,,,0.00,Wunderground v.1.15,2013-10-14 11:16:00,
2013-10-14 07:18:00,48.4,45.0,30.32,NE,48,0.0,0.0,88,0.00,,,0.00,Wunderground v.1.15,2013-10-14 11:18:00,
2013-10-14 07:20:00,48.3,44.9,30.32,NE,48,0.0,0.0,88,0.00,,,0.00,Wunderground v.1.15,2013-10-14 11:20:00,
2013-10-14 07:22:00,48.3,44.9,30.32,NE,48,0.0,0.0,88,0.00,,,0.00,Wunderground v.1.15,2013-10-14 11:22:00,
2013-10-14 07:23:00,48.3,44.9,30.33,NE,48,0.0,0.0,88,0.00,,,0.00,Wunderground v.1.15,2013-10-14 11:23:00,
2013-10-14 07:24:00,67.4,59.6,30.20,NNE,26,0.0,0.0,76,0.00,,,0.00,Wunderground v.1.15,2013-10-14 11:24:00,
2013-10-14 07:25:00,48.3,44.9,30.33,NE,48,0.0,0.0,88,0.00,,,0.00,Wunderground v.1.15,2013-10-14 11:25:00,
2013-10-14 07:29:00,48.2,44.8,30.32,NE,48,0.0,0.0,88,0.00,,,0.00,Wunderground v.1.15,2013-10-14 11:29:00,
2013-10-14 07:30:00,48.1,44.7,30.32,NE,48,0.0,0.0,88,0.00,,,0.00,Wunderground v.1.15,2013-10-14 11:30:00,
2013-10-14 07:31:00,48.1,44.7,30.32,NE,48,0.0,0.0,88,0.00,,,0.00,Wunderground v.1.15,2013-10-14 11:31:00,
2013-10-14 07:34:00,48.1,45.0,30.33,NE,48,0.0,0.0,89,0.00,,,0.00,Wunderground v.1.15,2013-10-14 11:34:00,
2013-10-14 07:36:00,48.1,45.0,30.33,NE,48,0.0,0.0,89,0.00,,,0.00,Wunderground v.1.15,2013-10-14 11:36:00,
2013-10-14 07:37:00,48.1,45.0,30.33,NE,48,0.0,0.0,89,0.00,,,0.00,Wunderground v.1.15,2013-10-14 11:37:00,
2013-10-14 07:38:00,48.0,44.9,30.33,NE,48,0.0,0.0,89,0.00,,,0.00,Wunderground v.1.15,2013-10-14 11:38:00,
2013-10-14 07:39:00,48.0,44.9,30.33,NE,48,0.0,0.0,89,0.00,,,0.00,Wunderground v.1.15,2013-10-14 11:39:00,
2013-10-14 07:40:00,48.0,44.9,30.33,NE,48,0.0,0.0,89,0.00,,,0.00,Wunderground v.1.15,2013-10-14 11:40:00,
2013-10-14 07:42:00,47.9,44.8,30.32,NE,48,0.0,0.0,89,0.00,,,0.00,Wunderground v.1.15,2013-10-14 11:42:00,
2013-10-14 07:43:00,47.9,44.8,30.32,NE,48,0.0,0.0,89,0.00,,,0.00,Wunderground v.1.15,2013-10-14 11:43:00,
2013-10-14 07:45:00,47.9,44.8,30.32,NE,48,0.0,0.0,89,0.00,,,0.00,Wunderground v.1.15,2013-10-14 11:45:00,
2013-10-14 07:48:00,47.8,44.7,30.32,NE,48,0.0,0.0,89,0.00,,,0.00,Wunderground v.1.15,2013-10-14 11:48:00,
2013-10-14 07:49:00,47.8,44.7,30.33,NE,48,0.0,0.0,89,0.00,,,0.00,Wunderground v.1.15,2013-10-14 11:49:00,
2013-10-14 07:50:00,47.8,44.7,30.33,NE,48,0.0,0.0,89,0.00,,,0.00,Wunderground v.1.15,2013-10-14 11:50:00,
2013-10-14 07:51:00,47.8,44.7,30.33,NE,48,0.0,0.0,89,0.00,,,0.00,Wunderground v.1.15,2013-10-14 11:51:00,
2013-10-14 07:54:00,47.8,45.0,30.33,NE,48,0.0,0.0,90,0.00,,,0.00,Wunderground v.1.15,2013-10-14 11:54:00,
2013-10-14 07:55:00,47.8,45.0,30.33,NE,48,0.0,0.0,90,0.00,,,0.00,Wunderground v.1.15,2013-10-14 11:55:00,
2013-10-14 07:56:00,47.8,45.0,30.33,NE,48,0.0,0.0,90,0.00,,,0.00,Wunderground v.1.15,2013-10-14 11:56:00,
2013-10-14 07:57:00,47.8,44.7,30.33,NE,48,0.0,0.0,89,0.00,,,0.00,Wunderground v.1.15,2013-10-14 11:57:00,
2013-10-14 07:59:00,47.8,44.7,30.33,NE,48,0.0,0.0,89,0.00,,,0.00,Wunderground v.1.15,2013-10-14 11:59:00,
2013-10-14 08:01:00,47.7,44.6,30.33,NE,48,0.0,0.0,89,0.00,,,0.00,Wunderground v.1.15,2013-10-14 12:01:00,
2013-10-14 08:02:00,47.7,44.9,30.33,NE,48,0.0,0.0,90,0.00,,,0.00,Wunderground v.1.15,2013-10-14 12:02:00,
2013-10-14 08:04:00,47.6,44.8,30.33,NE,48,0.0,0.0,90,0.00,,,0.00,Wunderground v.1.15,2013-10-14 12:04:00,
2013-10-14 08:05:00,47.6,44.8,30.33,NE,48,0.0,0.0,90,0.00,,,0.00,Wunderground v.1.15,2013-10-14 12:05:00,
2013-10-14 08:07:00,47.6,44.8,30.33,NE,48,0.0,0.0,90,0.00,,,0.00,Wunderground v.1.15,2013-10-14 12:07:00,
2013-10-14 08:10:00,47.5,44.7,30.33,NE,48,0.0,0.0,90,0.00,,,0.00,Wunderground v.1.15,2013-10-14 12:10:00,
2013-10-14 08:11:00,47.5,44.7,30.33,NE,48,0.0,0.0,90,0.00,,,0.00,Wunderground v.1.15,2013-10-14 12:11:00,
2013-10-14 08:12:00,47.5,44.7,30.33,NE,48,0.0,0.0,90,0.00,,,0.00,Wunderground v.1.15,2013-10-14 12:12:00,
2013-10-14 08:13:00,64.4,56.3,30.20,NNE,26,0.0,0.0,75,0.00,,,0.00,Wunderground v.1.15,2013-10-14 12:13:00,
2013-10-14 08:15:00,47.4,44.6,30.33,NE,48,0.0,0.0,90,0.00,,,0.00,Wunderground v.1.15,2013-10-14 12:15:00,
2013-10-14 08:16:00,47.4,44.6,30.33,NE,48,0.0,0.0,90,0.00,,,0.00,Wunderground v.1.15,2013-10-14 12:16:00,
2013-10-14 08:17:00,47.4,44.6,30.33,NE,48,0.0,0.0,90,0.00,,,0.00,Wunderground v.1.15,2013-10-14 12:17:00,
2013-10-14 08:18:00,47.3,44.5,30.33,NE,48,0.0,0.0,90,0.00,,,0.00,Wunderground v.1.15,2013-10-14 12:18:00,
2013-10-14 08:19:00,64.1,56.0,30.20,NNE,26,0.0,0.0,75,0.00,,,0.00,Wunderground v.1.15,2013-10-14 12:19:00,
2013-10-14 08:21:00,64.1,56.0,30.20,NNE,26,0.0,0.0,75,0.00,,,0.00,Wunderground v.1.15,2013-10-14 12:21:00,
2013-10-14 08:22:00,47.3,44.5,30.33,NE,48,0.0,0.0,90,0.00,,,0.00,Wunderground v.1.15,2013-10-14 12:22:00,
2013-10-14 08:24:00,47.3,44.8,30.33,NE,48,0.0,0.0,91,0.00,,,0.00,Wunderground v.1.15,2013-10-14 12:24:00,
2013-10-14 08:26:00,47.4,44.9,30.34,NE,48,0.0,0.0,91,0.00,,,0.00,Wunderground v.1.15,2013-10-14 12:26:00,
2013-10-14 08:27:00,47.4,44.9,30.34,NE,48,0.0,0.0,91,0.00,,,0.00,Wunderground v.1.15,2013-10-14 12:27:00,
2013-10-14 08:28:00,63.8,55.7,30.19,NNE,26,0.0,0.0,75,0.00,,,0.00,Wunderground v.1.15,2013-10-14 12:28:00,
2013-10-14 08:30:00,63.7,56.0,30.19,NNE,26,0.0,0.0,76,0.00,,,0.00,Wunderground v.1.15,2013-10-14 12:30:00,
2013-10-14 08:31:00,47.5,45.0,30.34,NE,48,0.0,0.0,91,0.00,,,0.00,Wunderground v.1.15,2013-10-14 12:31:00,
2013-10-14 08:32:00,47.6,45.1,30.34,NE,48,0.0,0.0,91,0.00,,,0.00,Wunderground v.1.15,2013-10-14 12:32:00,
2013-10-14 08:34:00,47.6,45.1,30.34,NE,48,0.0,0.0,91,0.00,,,0.00,Wunderground v.1.15,2013-10-14 12:34:00,
2013-10-14 08:35:00,47.7,45.2,30.34,NE,48,0.0,0.0,91,0.00,,,0.00,Wunderground v.1.15,2013-10-14 12:35:00,
2013-10-14 08:36:00,47.7,45.2,30.34,NE,48,0.0,0.0,91,0.00,,,0.00,Wunderground v.1.15,2013-10-14 12:36:00,
2013-10-14 08:38:00,47.7,45.2,30.34,NE,48,0.0,0.0,91,0.00,,,0.00,Wunderground v.1.15,2013-10-14 12:38:00,
2013-10-14 08:39:00,47.7,45.2,30.34,NE,48,0.0,0.0,91,0.00,,,0.00,Wunderground v.1.15,2013-10-14 12:39:00,
2013-10-14 08:41:00,47.8,45.6,30.34,NE,48,0.0,0.0,92,0.00,,,0.00,Wunderground v.1.15,2013-10-14 12:41:00,
2013-10-14 08:43:00,47.8,45.6,30.34,NE,48,0.0,0.0,92,0.00,,,0.00,Wunderground v.1.15,2013-10-14 12:43:00,
2013-10-14 08:44:00,47.8,45.6,30.34,NE,48,0.0,0.0,92,0.00,,,0.00,Wunderground v.1.15,2013-10-14 12:44:00,
2013-10-14 08:47:00,63.1,55.8,30.20,NNE,26,0.0,0.0,77,0.00,,,0.00,Wunderground v.1.15,2013-10-14 12:47:00,
2013-10-14 08:48:00,47.9,45.4,30.34,NE,48,0.0,0.0,91,0.00,,,0.00,Wunderground v.1.15,2013-10-14 12:48:00,
2013-10-14 08:49:00,47.9,45.4,30.34,NE,48,0.0,0.0,91,0.00,,,0.00,Wunderground v.1.15,2013-10-14 12:49:00,
2013-10-14 08:51:00,47.9,45.4,30.34,NE,48,0.0,0.0,91,0.00,,,0.00,Wunderground v.1.15,2013-10-14 12:51:00,
2013-10-14 08:52:00,48.0,45.5,30.35,NE,48,0.0,0.0,91,0.00,,,0.00,Wunderground v.1.15,2013-10-14 12:52:00,
2013-10-14 08:54:00,48.0,45.5,30.34,NE,48,0.0,0.0,91,0.00,,,0.00,Wunderground v.1.15,2013-10-14 12:54:00,
2013-10-14 08:56:00,48.1,45.6,30.35,NE,48,0.0,0.0,91,0.00,,,0.00,Wunderground v.1.15,2013-10-14 12:56:00,
2013-10-14 08:57:00,48.1,45.6,30.34,NE,48,0.0,0.0,91,0.00,,,0.00,Wunderground v.1.15,2013-10-14 12:57:00,
2013-10-14 08:59:00,48.1,45.6,30.35,NE,48,0.0,0.0,91,0.00,,,0.00,Wunderground v.1.15,2013-10-14 12:59:00,
2013-10-14 09:00:00,48.1,45.6,30.35,NE,48,0.0,0.0,91,0.00,,,0.00,Wunderground v.1.15,2013-10-14 13:00:00,
2013-10-14 09:01:00,48.1,45.6,30.35,NE,48,0.0,0.0,91,0.00,,,0.00,Wunderground v.1.15,2013-10-14 13:01:00,
2013-10-14 09:03:00,48.2,45.7,30.35,NE,48,0.0,0.0,91,0.00,,,0.00,Wunderground v.1.15,2013-10-14 13:03:00,
2013-10-14 09:04:00,48.2,45.7,30.34,NE,48,0.0,0.0,91,0.00,,,0.00,Wunderground v.1.15,2013-10-14 13:04:00,
2013-10-14 09:06:00,48.3,45.5,30.35,NE,48,0.0,0.0,90,0.00,,,0.00,Wunderground v.1.15,2013-10-14 13:06:00,
2013-10-14 09:07:00,48.3,45.5,30.35,NE,48,0.0,0.0,90,0.00,,,0.00,Wunderground v.1.15,2013-10-14 13:07:00,
2013-10-14 09:09:00,48.4,45.9,30.34,NE,48,0.0,0.0,91,0.00,,,0.00,Wunderground v.1.15,2013-10-14 13:09:00,
2013-10-14 09:10:00,48.4,45.9,30.34,NE,48,0.0,0.0,91,0.00,,,0.00,Wunderground v.1.15,2013-10-14 13:10:00,
2013-10-14 09:11:00,48.5,46.0,30.34,NE,48,0.0,0.0,91,0.00,,,0.00,Wunderground v.1.15,2013-10-14 13:11:00,
2013-10-14 09:13:00,48.5,46.0,30.34,NE,48,0.0,0.0,91,0.00,,,0.00,Wunderground v.1.15,2013-10-14 13:13:00,
2013-10-14 09:16:00,48.7,46.2,30.34,NE,48,0.0,0.0,91,0.00,,,0.00,Wunderground v.1.15,2013-10-14 13:16:00,
2013-10-14 09:17:00,48.7,46.2,30.34,NE,49,0.0,0.0,91,0.00,,,0.00,Wunderground v.1.15,2013-10-14 13:17:00,
2013-10-14 09:20:00,48.9,46.4,30.34,NE,49,0.0,0.0,91,0.00,,,0.00,Wunderground v.1.15,2013-10-14 13:20:00,
2013-10-14 09:21:00,49.0,46.5,30.34,NE,49,0.0,0.0,91,0.00,,,0.00,Wunderground v.1.15,2013-10-14 13:21:00,
2013-10-14 09:22:00,49.1,46.6,30.34,NE,49,0.0,0.0,91,0.00,,,0.00,Wunderground v.1.15,2013-10-14 13:22:00,
2013-10-14 09:23:00,49.2,46.7,30.34,NE,49,0.0,0.0,91,0.00,,,0.00,Wunderground v.1.15,2013-10-14 13:23:00,
2013-10-14 09:25:00,49.3,46.8,30.34,East,86,0.0,0.0,91,0.00,,,0.00,Wunderground v.1.15,2013-10-14 13:25:00,
2013-10-14 09:28:00,49.6,46.8,30.34,NE,53,0.0,0.0,90,0.00,,,0.00,Wunderground v.1.15,2013-10-14 13:28:00,
2013-10-14 09:32:00,50.1,47.0,30.33,NNE,29,0.0,1.0,89,0.00,,,0.00,Wunderground v.1.15,2013-10-14 13:32:00,
2013-10-14 09:33:00,50.2,47.1,30.33,NNE,28,0.0,1.0,89,0.00,,,0.00,Wunderground v.1.15,2013-10-14 13:33:00,
2013-10-14 09:35:00,50.4,47.3,30.33,NNE,28,0.0,1.0,89,0.00,,,0.00,Wunderground v.1.15,2013-10-14 13:35:00,
2013-10-14 09:36:00,50.6,47.5,30.34,NNE,28,0.0,1.0,89,0.00,,,0.00,Wunderground v.1.15,2013-10-14 13:36:00,
2013-10-14 09:37:00,50.6,47.5,30.33,NE,52,0.0,1.0,89,0.00,,,0.00,Wunderground v.1.15,2013-10-14 13:37:00,
2013-10-14 09:40:00,50.9,47.2,30.34,NE,52,0.0,1.0,87,0.00,,,0.00,Wunderground v.1.15,2013-10-14 13:40:00,
2013-10-14 09:42:00,51.1,47.1,30.34,NE,52,0.0,1.0,86,0.00,,,0.00,Wunderground v.1.15,2013-10-14 13:42:00,
2013-10-14 09:45:00,51.5,47.5,30.34,NE,53,0.0,0.0,86,0.00,,,0.00,Wunderground v.1.15,2013-10-14 13:45:00,
2013-10-14 09:46:00,51.6,47.9,30.34,NE,52,0.0,0.0,87,0.00,,,0.00,Wunderground v.1.15,2013-10-14 13:46:00,
2013-10-14 09:47:00,51.7,47.6,30.34,NE,52,0.0,0.0,86,0.00,,,0.00,Wunderground v.1.15,2013-10-14 13:47:00,
2013-10-14 09:48:00,51.8,47.4,30.34,NE,52,0.0,0.0,85,0.00,,,0.00,Wunderground v.1.15,2013-10-14 13:48:00,
2013-10-14 09:50:00,52.0,47.9,30.34,NE,52,0.0,0.0,86,0.00,,,0.00,Wunderground v.1.15,2013-10-14 13:50:00,
2013-10-14 09:54:00,52.4,48.3,30.34,NE,52,0.0,0.0,86,0.00,,,0.00,Wunderground v.1.15,2013-10-14 13:54:00,
2013-10-14 09:55:00,52.5,48.4,30.34,NE,52,0.0,0.0,86,0.00,,,0.00,Wunderground v.1.15,2013-10-14 13:55:00,
2013-10-14 09:56:00,52.5,48.4,30.34,NE,52,0.0,0.0,86,0.00,,,0.00,Wunderground v.1.15,2013-10-14 13:56:00,
2013-10-14 09:57:00,52.6,48.2,30.34,ENE,63,0.0,0.0,85,0.00,,,0.00,Wunderground v.1.15,2013-10-14 13:57:00,
2013-10-14 09:59:00,52.8,48.1,30.34,ENE,63,0.0,1.0,84,0.00,,,0.00,Wunderground v.1.15,2013-10-14 13:59:00,
2013-10-14 10:00:00,52.9,47.9,30.33,ENE,63,0.0,1.0,83,0.00,,,0.00,Wunderground v.1.15,2013-10-14 14:00:00,
2013-10-14 10:01:00,53.0,48.0,30.33,ENE,63,0.0,1.0,83,0.00,,,0.00,Wunderground v.1.15,2013-10-14 14:01:00,
2013-10-14 10:04:00,53.3,48.6,30.33,ENE,63,0.0,0.0,84,0.00,,,0.00,Wunderground v.1.15,2013-10-14 14:04:00,
2013-10-14 10:05:00,53.3,48.9,30.33,ENE,63,0.0,0.0,85,0.00,,,0.00,Wunderground v.1.15,2013-10-14 14:05:00,
2013-10-14 10:06:00,53.4,49.0,30.33,ENE,63,0.0,0.0,85,0.00,,,0.00,Wunderground v.1.15,2013-10-14 14:06:00,
2013-10-14 10:07:00,53.5,48.8,30.34,ENE,63,0.0,0.0,84,0.00,,,0.00,Wunderground v.1.15,2013-10-14 14:07:00,
2013-10-14 10:09:00,53.7,48.3,30.34,ENE,63,0.0,0.0,82,0.00,,,0.00,Wunderground v.1.15,2013-10-14 14:09:00,
2013-10-14 10:10:00,53.8,48.1,30.34,ENE,63,0.0,0.0,81,0.00,,,0.00,Wunderground v.1.15,2013-10-14 14:10:00,
2013-10-14 10:13:00,54.2,48.8,30.34,ENE,63,0.0,1.0,82,0.00,,,0.00,Wunderground v.1.15,2013-10-14 14:13:00,
2013-10-14 10:15:00,54.4,48.0,30.34,ENE,63,0.0,0.0,79,0.00,,,0.00,Wunderground v.1.15,2013-10-14 14:15:00,
2013-10-14 10:16:00,54.5,48.5,30.34,ENE,63,0.0,0.0,80,0.00,,,0.00,Wunderground v.1.15,2013-10-14 14:16:00,
2013-10-14 10:17:00,54.6,48.9,30.34,ENE,63,0.0,0.0,81,0.00,,,0.00,Wunderground v.1.15,2013-10-14 14:17:00,
2013-10-14 10:19:00,54.8,48.7,30.34,ENE,63,0.0,0.0,80,0.00,,,0.00,Wunderground v.1.15,2013-10-14 14:19:00,
2013-10-14 10:20:00,55.0,49.3,30.34,ENE,63,0.0,1.0,81,0.00,,,0.00,Wunderground v.1.15,2013-10-14 14:20:00,
2013-10-14 10:23:00,55.2,49.1,30.34,ENE,63,0.0,1.0,80,0.00,,,0.00,Wunderground v.1.15,2013-10-14 14:23:00,
2013-10-14 10:25:00,55.3,48.9,30.33,ENE,63,0.0,0.0,79,0.00,,,0.00,Wunderground v.1.15,2013-10-14 14:25:00,
2013-10-14 10:26:00,55.4,49.7,30.33,ENE,63,0.0,0.0,81,0.00,,,0.00,Wunderground v.1.15,2013-10-14 14:26:00,
2013-10-14 10:27:00,55.4,49.0,30.34,ENE,63,0.0,0.0,79,0.00,,,0.00,Wunderground v.1.15,2013-10-14 14:27:00,
2013-10-14 10:29:00,55.5,49.1,30.34,ENE,63,0.0,0.0,79,0.00,,,0.00,Wunderground v.1.15,2013-10-14 14:29:00,
2013-10-14 10:31:00,55.6,49.5,30.34,ENE,63,0.0,0.0,80,0.00,,,0.00,Wunderground v.1.15,2013-10-14 14:31:00,
2013-10-14 10:32:00,55.6,49.5,30.34,ENE,63,0.0,0.0,80,0.00,,,0.00,Wunderground v.1.15,2013-10-14 14:32:00,
2013-10-14 10:33:00,55.7,49.3,30.34,ENE,63,0.0,0.0,79,0.00,,,0.00,Wunderground v.1.15,2013-10-14 14:33:00,
2013-10-14 10:35:00,55.7,50.0,30.34,ENE,63,0.0,0.0,81,0.00,,,0.00,Wunderground v.1.15,2013-10-14 14:35:00,
2013-10-14 10:36:00,55.8,49.4,30.34,ENE,63,0.0,0.0,79,0.00,,,0.00,Wunderground v.1.15,2013-10-14 14:36:00,
2013-10-14 10:37:00,55.8,49.4,30.34,ENE,63,0.0,0.0,79,0.00,,,0.00,Wunderground v.1.15,2013-10-14 14:37:00,
2013-10-14 10:38:00,55.9,49.5,30.34,ENE,65,0.0,0.0,79,0.00,,,0.00,Wunderground v.1.15,2013-10-14 14:38:00,
2013-10-14 10:42:00,56.1,49.0,30.33,ENE,65,0.0,1.0,77,0.00,,,0.00,Wunderground v.1.15,2013-10-14 14:42:00,
2013-10-14 10:43:00,56.2,49.1,30.33,ENE,65,0.0,1.0,77,0.00,,,0.00,Wunderground v.1.15,2013-10-14 14:43:00,
2013-10-14 10:44:00,56.3,49.5,30.33,ENE,65,0.0,0.0,78,0.00,,,0.00,Wunderground v.1.15,2013-10-14 14:44:00,
2013-10-14 10:47:00,56.6,48.8,30.33,ENE,65,0.0,1.0,75,0.00,,,0.00,Wunderground v.1.15,2013-10-14 14:47:00,
2013-10-14 10:48:00,56.7,49.2,30.33,ENE,65,0.0,1.0,76,0.00,,,0.00,Wunderground v.1.15,2013-10-14 14:48:00,
2013-10-14 10:49:00,56.8,49.7,30.33,ENE,65,0.0,1.0,77,0.00,,,0.00,Wunderground v.1.15,2013-10-14 14:49:00,
2013-10-14 10:53:00,57.2,49.3,30.33,NNE,26,0.0,1.0,75,0.00,,,0.00,Wunderground v.1.15,2013-10-14 14:53:00,
2013-10-14 10:55:00,57.5,49.6,30.33,NNE,26,0.0,0.0,75,0.00,,,0.00,Wunderground v.1.15,2013-10-14 14:55:00,
2013-10-14 10:56:00,57.6,50.1,30.33,NNE,26,0.0,0.0,76,0.00,,,0.00,Wunderground v.1.15,2013-10-14 14:56:00,
2013-10-14 10:58:00,57.8,50.3,30.33,NNE,26,0.0,0.0,76,0.00,,,0.00,Wunderground v.1.15,2013-10-14 14:58:00,
2013-10-14 10:59:00,57.8,49.6,30.33,NNE,26,0.0,0.0,74,0.00,,,0.00,Wunderground v.1.15,2013-10-14 14:59:00,
2013-10-14 11:02:00,58.2,50.3,30.33,ENE,72,0.0,0.0,75,0.00,,,0.00,Wunderground v.1.15,2013-10-14 15:02:00,
2013-10-14 11:04:00,58.4,50.5,30.32,ENE,72,0.0,0.0,75,0.00,,,0.00,Wunderground v.1.15,2013-10-14 15:04:00,
2013-10-14 11:05:00,58.5,50.6,30.32,ENE,72,0.0,0.0,75,0.00,,,0.00,Wunderground v.1.15,2013-10-14 15:05:00,
2013-10-14 11:07:00,58.7,50.1,30.32,ENE,72,0.0,0.0,73,0.00,,,0.00,Wunderground v.1.15,2013-10-14 15:07:00,
2013-10-14 11:08:00,58.8,50.2,30.32,ENE,72,0.0,0.0,73,0.00,,,0.00,Wunderground v.1.15,2013-10-14 15:08:00,
2013-10-14 11:11:00,59.1,50.1,30.32,ENE,72,0.0,1.0,72,0.00,,,0.00,Wunderground v.1.15,2013-10-14 15:11:00,
2013-10-14 11:13:00,59.3,50.3,30.32,ENE,72,0.0,1.0,72,0.00,,,0.00,Wunderground v.1.15,2013-10-14 15:13:00,
2013-10-14 11:14:00,59.3,49.9,30.32,ENE,72,0.0,0.0,71,0.00,,,0.00,Wunderground v.1.15,2013-10-14 15:14:00,
2013-10-14 11:18:00,59.5,50.1,30.33,ENE,65,1.0,2.0,71,0.00,,,0.00,Wunderground v.1.15,2013-10-14 15:18:00,
2013-10-14 11:19:00,59.5,50.5,30.33,ENE,65,1.0,2.0,72,0.00,,,0.00,Wunderground v.1.15,2013-10-14 15:19:00,
2013-10-14 11:21:00,59.6,50.9,30.33,ENE,65,1.0,2.0,73,0.00,,,0.00,Wunderground v.1.15,2013-10-14 15:21:00,
2013-10-14 11:25:00,59.9,50.8,30.33,ENE,65,0.0,0.0,72,0.00,,,0.00,Wunderground v.1.15,2013-10-14 15:25:00,
2013-10-14 11:28:00,60.0,50.6,30.33,ENE,76,0.0,2.0,71,0.00,,,0.00,Wunderground v.1.15,2013-10-14 15:28:00,
2013-10-14 11:29:00,60.1,50.3,30.33,ENE,76,0.0,2.0,70,0.00,,,0.00,Wunderground v.1.15,2013-10-14 15:29:00,
2013-10-14 11:33:00,60.4,51.0,30.32,NE,36,0.0,2.0,71,0.00,,,0.00,Wunderground v.1.15,2013-10-14 15:33:00,
2013-10-14 11:35:00,60.6,50.8,30.32,NE,42,1.0,1.0,70,0.00,,,0.00,Wunderground v.1.15,2013-10-14 15:35:00,
2013-10-14 11:36:00,60.7,50.9,30.32,NE,42,1.0,1.0,70,0.00,,,0.00,Wunderground v.1.15,2013-10-14 15:36:00,
2013-10-14 11:37:00,60.8,51.3,30.32,North,9,1.0,2.0,71,0.00,,,0.00,Wunderground v.1.15,2013-10-14 15:37:00,
2013-10-14 11:41:00,61.1,51.6,30.32,ENE,57,1.0,2.0,71,0.00,,,0.00,Wunderground v.1.15,2013-10-14 15:41:00,
2013-10-14 11:42:00,61.2,51.7,30.32,ENE,57,1.0,2.0,71,0.00,,,0.00,Wunderground v.1.15,2013-10-14 15:42:00,
2013-10-14 11:45:00,61.4,51.1,30.32,ENE,57,0.0,0.0,69,0.00,,,0.00,Wunderground v.1.15,2013-10-14 15:45:00,
2013-10-14 11:47:00,61.6,52.1,30.32,ENE,57,0.0,0.0,71,0.00,,,0.00,Wunderground v.1.15,2013-10-14 15:47:00,
2013-10-14 11:50:00,61.9,52.4,30.32,ENE,58,0.0,0.0,71,0.00,,,0.00,Wunderground v.1.15,2013-10-14 15:50:00,
2013-10-14 11:52:00,62.2,52.3,30.32,SE,140,0.0,0.0,70,0.00,,,0.00,Wunderground v.1.15,2013-10-14 15:52:00,
2013-10-14 11:54:00,62.3,52.8,30.32,SE,140,0.0,0.0,71,0.00,,,0.00,Wunderground v.1.15,2013-10-14 15:54:00,
2013-10-14 11:55:00,62.3,53.2,30.32,SE,140,0.0,0.0,72,0.00,,,0.00,Wunderground v.1.15,2013-10-14 15:55:00,
2013-10-14 11:57:00,62.5,52.6,30.32,North,5,0.0,1.0,70,0.00,,,0.00,Wunderground v.1.15,2013-10-14 15:57:00,
2013-10-14 11:58:00,62.6,52.7,30.32,NE,36,0.0,1.0,70,0.00,,,0.00,Wunderground v.1.15,2013-10-14 15:58:00,
2013-10-14 11:59:00,62.6,52.3,30.32,ENE,75,0.0,1.0,69,0.00,,,0.00,Wunderground v.1.15,2013-10-14 15:59:00,
2013-10-14 12:03:00,63.0,52.7,30.32,SE,132,0.0,1.0,69,0.00,,,0.00,Wunderground v.1.15,2013-10-14 16:03:00,
2013-10-14 12:04:00,63.1,52.4,30.31,SE,132,0.0,0.0,68,0.00,,,0.00,Wunderground v.1.15,2013-10-14 16:04:00,
2013-10-14 12:08:00,63.5,53.1,30.32,ENE,64,0.0,0.0,69,0.00,,,0.00,Wunderground v.1.15,2013-10-14 16:08:00,
2013-10-14 12:10:00,63.6,53.2,30.32,ENE,66,1.0,3.0,69,0.00,,,0.00,Wunderground v.1.15,2013-10-14 16:10:00,
2013-10-14 12:11:00,63.8,53.4,30.32,ENE,66,1.0,3.0,69,0.00,,,0.00,Wunderground v.1.15,2013-10-14 16:11:00,
2013-10-14 12:14:00,64.0,53.6,30.31,ENE,66,0.0,1.0,69,0.00,,,0.00,Wunderground v.1.15,2013-10-14 16:14:00,
2013-10-14 12:17:00,64.3,54.3,30.31,ENE,66,0.0,1.0,70,0.00,,,0.00,Wunderground v.1.15,2013-10-14 16:17:00,
2013-10-14 12:19:00,64.4,54.0,30.31,ENE,66,0.0,2.0,69,0.00,,,0.00,Wunderground v.1.15,2013-10-14 16:19:00,
2013-10-14 12:20:00,64.5,54.1,30.31,ENE,66,0.0,2.0,69,0.00,,,0.00,Wunderground v.1.15,2013-10-14 16:20:00,
2013-10-14 12:24:00,64.8,54.4,30.31,ENE,66,0.0,1.0,69,0.00,,,0.00,Wunderground v.1.15,2013-10-14 16:24:00,
2013-10-14 12:26:00,65.0,54.6,30.31,NE,34,0.0,1.0,69,0.00,,,0.00,Wunderground v.1.15,2013-10-14 16:26:00,
2013-10-14 12:28:00,65.2,55.2,30.31,NE,34,0.0,1.0,70,0.00,,,0.00,Wunderground v.1.15,2013-10-14 16:28:00,
2013-10-14 12:31:00,65.6,54.8,30.31,North,355,0.0,2.0,68,0.00,,,0.00,Wunderground v.1.15,2013-10-14 16:31:00,
2013-10-14 12:34:00,65.8,55.3,30.30,North,360,0.0,1.0,69,0.00,,,0.00,Wunderground v.1.15,2013-10-14 16:34:00,
2013-10-14 12:35:00,65.9,55.0,30.31,North,5,0.0,1.0,68,0.00,,,0.00,Wunderground v.1.15,2013-10-14 16:35:00,
2013-10-14 12:37:00,66.0,55.1,30.30,North,5,0.0,1.0,68,0.00,,,0.00,Wunderground v.1.15,2013-10-14 16:37:00,
2013-10-14 12:41:00,66.4,55.9,30.31,NNE,18,1.0,2.0,69,0.00,,,0.00,Wunderground v.1.15,2013-10-14 16:41:00,
2013-10-14 12:42:00,66.4,55.5,30.31,NE,38,1.0,2.0,68,0.00,,,0.00,Wunderground v.1.15,2013-10-14 16:42:00,
2013-10-14 12:46:00,66.5,55.6,30.30,NE,44,0.0,1.0,68,0.00,,,0.00,Wunderground v.1.15,2013-10-14 16:46:00,
2013-10-14 12:49:00,66.5,55.6,30.30,NE,35,1.0,2.0,68,0.00,,,0.00,Wunderground v.1.15,2013-10-14 16:49:00,
2013-10-14 12:50:00,66.6,55.7,30.30,NE,38,1.0,2.0,68,0.00,,,0.00,Wunderground v.1.15,2013-10-14 16:50:00,
2013-10-14 12:54:00,66.6,55.7,30.30,NE,52,1.0,1.0,68,0.00,,,0.00,Wunderground v.1.15,2013-10-14 16:54:00,
2013-10-14 12:57:00,67.0,56.1,30.30,NE,55,1.0,2.0,68,0.00,,,0.00,Wunderground v.1.15,2013-10-14 16:57:00,
2013-10-14 12:59:00,67.3,57.2,30.30,ESE,113,1.0,2.0,70,0.00,,,0.00,Wunderground v.1.15,2013-10-14 16:59:00,
2013-10-14 13:01:00,67.6,56.2,30.30,SW,230,0.0,2.0,67,0.00,,,0.00,Wunderground v.1.15,2013-10-14 17:01:00,
2013-10-14 13:02:00,67.7,56.3,30.30,SW,231,0.0,2.0,67,0.00,,,0.00,Wunderground v.1.15,2013-10-14 17:02:00,
2013-10-14 13:04:00,67.8,56.4,30.30,NE,39,1.0,2.0,67,0.00,,,0.00,Wunderground v.1.15,2013-10-14 17:04:00,
2013-10-14 13:05:00,67.9,56.9,30.30,NNE,18,1.0,2.0,68,0.00,,,0.00,Wunderground v.1.15,2013-10-14 17:05:00,
2013-10-14 13:06:00,68.0,57.4,30.30,NNE,18,1.0,2.0,69,0.00,,,0.00,Wunderground v.1.15,2013-10-14 17:06:00,
2013-10-14 13:07:00,56.1,54.1,30.19,NNE,26,0.0,0.0,93,0.00,,,0.00,Wunderground v.1.15,2013-10-14 17:07:00,
2013-10-14 13:08:00,56.1,54.1,30.19,NNE,26,0.0,0.0,93,0.00,,,0.00,Wunderground v.1.15,2013-10-14 17:08:00,
2013-10-14 13:09:00,56.1,54.1,30.19,NNE,26,0.0,0.0,93,0.00,,,0.00,Wunderground v.1.15,2013-10-14 17:09:00,
2013-10-14 13:10:00,68.5,57.1,30.30,NE,55,0.0,2.0,67,0.00,,,0.00,Wunderground v.1.15,2013-10-14 17:10:00,
2013-10-14 13:11:00,56.0,54.0,30.19,NNE,26,0.0,0.0,93,0.00,,,0.00,Wunderground v.1.15,2013-10-14 17:11:00,
2013-10-14 13:12:00,56.0,54.0,30.19,NNE,26,0.0,0.0,93,0.00,,,0.00,Wunderground v.1.15,2013-10-14 17:12:00,
2013-10-14 13:13:00,68.6,56.8,30.30,NE,39,1.0,2.0,66,0.00,,,0.00,Wunderground v.1.15,2013-10-14 17:13:00,
2013-10-14 13:14:00,68.7,56.9,30.30,NW,321,1.0,1.0,66,0.00,,,0.00,Wunderground v.1.15,2013-10-14 17:14:00,
2013-10-14 13:15:00,68.7,56.9,30.30,NW,321,1.0,1.0,66,0.00,,,0.00,Wunderground v.1.15,2013-10-14 17:15:00,
2013-10-14 13:16:00,68.7,56.9,30.30,NW,321,1.0,1.0,66,0.00,,,0.00,Wunderground v.1.15,2013-10-14 17:16:00,
2013-10-14 13:17:00,56.0,54.0,30.19,NNE,26,0.0,0.0,93,0.00,,,0.00,Wunderground v.1.15,2013-10-14 17:17:00,
2013-10-14 13:18:00,68.8,57.4,30.29,NW,321,1.0,1.0,67,0.00,,,0.00,Wunderground v.1.15,2013-10-14 17:18:00,
2013-10-14 13:19:00,56.1,54.1,30.19,NNE,26,0.0,0.0,93,0.00,,,0.00,Wunderground v.1.15,2013-10-14 17:19:00,
2013-10-14 13:20:00,69.1,58.1,30.29,NW,321,0.0,1.0,68,0.00,,,0.00,Wunderground v.1.15,2013-10-14 17:20:00,
2013-10-14 13:21:00,56.1,54.1,30.19,NNE,26,0.0,0.0,93,0.00,,,0.00,Wunderground v.1.15,2013-10-14 17:21:00,
2013-10-14 13:22:00,69.4,57.5,30.29,NW,321,0.0,1.0,66,0.00,,,0.00,Wunderground v.1.15,2013-10-14 17:22:00,
2013-10-14 13:23:00,69.5,57.2,30.29,NE,42,0.0,1.0,65,0.00,,,0.00,Wunderground v.1.15,2013-10-14 17:23:00,
2013-10-14 13:24:00,56.1,54.4,30.19,NNE,26,0.0,0.0,94,0.00,,,0.00,Wunderground v.1.15,2013-10-14 17:24:00,
2013-10-14 13:25:00,69.8,57.9,30.29,ENE,70,0.0,1.0,66,0.00,,,0.00,Wunderground v.1.15,2013-10-14 17:25:00,
2013-10-14 13:26:00,69.9,57.6,30.29,ENE,70,0.0,1.0,65,0.00,,,0.00,Wunderground v.1.15,2013-10-14 17:26:00,
2013-10-14 13:27:00,56.2,54.5,30.19,NNE,26,0.0,0.0,94,0.00,,,0.00,Wunderground v.1.15,2013-10-14 17:27:00,
2013-10-14 13:28:00,56.2,54.5,30.19,NNE,26,0.0,0.0,94,0.00,,,0.00,Wunderground v.1.15,2013-10-14 17:28:00,
2013-10-14 13:29:00,70.1,57.4,30.29,ENE,63,0.0,1.0,64,0.00,,,0.00,Wunderground v.1.15,2013-10-14 17:29:00,
2013-10-14 13:30:00,70.2,58.3,30.29,ESE,114,0.0,1.0,66,0.00,,,0.00,Wunderground v.1.15,2013-10-14 17:30:00,
2013-10-14 13:31:00,56.2,54.5,30.19,NNE,26,0.0,0.0,94,0.00,,,0.00,Wunderground v.1.15,2013-10-14 17:31:00,
2013-10-14 13:32:00,70.3,57.5,30.29,ESE,112,0.0,1.0,64,0.00,,,0.00,Wunderground v.1.15,2013-10-14 17:32:00,
2013-10-14 13:33:00,56.2,54.5,30.18,NNE,26,0.0,0.0,94,0.00,,,0.00,Wunderground v.1.15,2013-10-14 17:33:00,
2013-10-14 13:34:00,56.2,54.5,30.18,NNE,26,0.0,0.0,94,0.00,,,0.00,Wunderground v.1.15,2013-10-14 17:34:00,
2013-10-14 13:35:00,70.3,57.5,30.28,ESE,104,1.0,1.0,64,0.00,,,0.00,Wunderground v.1.15,2013-10-14 17:35:00,
2013-10-14 13:36:00,70.2,57.9,30.28,East,80,1.0,1.0,65,0.00,,,0.00,Wunderground v.1.15,2013-10-14 17:36:00,
2013-10-14 13:37:00,56.2,54.5,30.18,NNE,26,0.0,0.0,94,0.00,,,0.00,Wunderground v.1.15,2013-10-14 17:37:00,
2013-10-14 13:38:00,70.0,56.8,30.28,NE,53,1.0,1.0,63,0.00,,,0.00,Wunderground v.1.15,2013-10-14 17:38:00,
2013-10-14 13:39:00,69.9,57.2,30.28,NE,53,1.0,1.0,64,0.00,,,0.00,Wunderground v.1.15,2013-10-14 17:39:00,
2013-10-14 13:40:00,69.9,57.6,30.28,NE,53,1.0,1.0,65,0.00,,,0.00,Wunderground v.1.15,2013-10-14 17:40:00,
2013-10-14 13:41:00,56.2,54.5,30.18,NNE,26,0.0,0.0,94,0.00,,,0.00,Wunderground v.1.15,2013-10-14 17:41:00,
2013-10-14 13:42:00,69.9,57.6,30.28,NE,49,1.0,2.0,65,0.00,,,0.00,Wunderground v.1.15,2013-10-14 17:42:00,
2013-10-14 13:43:00,56.1,54.4,30.18,NNE,26,0.0,0.0,94,0.00,,,0.00,Wunderground v.1.15,2013-10-14 17:43:00,
2013-10-14 13:44:00,69.7,57.4,30.28,NE,49,0.0,0.0,65,0.00,,,0.00,Wunderground v.1.15,2013-10-14 17:44:00,
2013-10-14 13:45:00,56.1,54.4,30.18,NNE,26,0.0,0.0,94,0.00,,,0.00,Wunderground v.1.15,2013-10-14 17:45:00,
2013-10-14 13:46:00,69.5,57.6,30.28,NE,49,0.0,0.0,66,0.00,,,0.00,Wunderground v.1.15,2013-10-14 17:46:00,
2013-10-14 13:47:00,56.1,54.4,30.18,NNE,26,0.0,0.0,94,0.00,,,0.00,Wunderground v.1.15,2013-10-14 17:47:00,
2013-10-14 13:48:00,56.0,54.3,30.18,NNE,26,0.0,0.0,94,0.00,,,0.00,Wunderground v.1.15,2013-10-14 17:48:00,
2013-10-14 13:49:00,69.4,57.5,30.28,NE,49,0.0,1.0,66,0.00,,,0.00,Wunderground v.1.15,2013-10-14 17:49:00,
2013-10-14 13:50:00,69.4,57.1,30.28,NE,49,0.0,1.0,65,0.00,,,0.00,Wunderground v.1.15,2013-10-14 17:50:00,
2013-10-14 13:51:00,56.0,54.3,30.18,NNE,26,0.0,0.0,94,0.00,,,0.00,Wunderground v.1.15,2013-10-14 17:51:00,
2013-10-14 13:52:00,69.1,56.8,30.27,NE,49,0.0,1.0,65,0.00,,,0.00,Wunderground v.1.15,2013-10-14 17:52:00,
2013-10-14 13:53:00,69.0,57.6,30.28,NE,49,0.0,1.0,67,0.00,,,0.00,Wunderground v.1.15,2013-10-14 17:53:00,
2013-10-14 13:54:00,68.9,57.5,30.28,NE,48,0.0,0.0,67,0.00,,,0.00,Wunderground v.1.15,2013-10-14 17:54:00,
2013-10-14 13:55:00,55.9,54.2,30.18,NNE,26,0.0,0.0,94,0.00,,,0.00,Wunderground v.1.15,2013-10-14 17:55:00,
2013-10-14 13:56:00,56.0,54.3,30.17,NNE,26,0.0,0.0,94,0.00,,,0.00,Wunderground v.1.15,2013-10-14 17:56:00,
2013-10-14 13:57:00,68.8,57.4,30.27,NE,48,0.0,0.0,67,0.00,,,0.00,Wunderground v.1.15,2013-10-14 17:57:00,
2013-10-14 13:58:00,55.9,54.2,30.17,NNE,26,0.0,0.0,94,0.00,,,0.00,Wunderground v.1.15,2013-10-14 17:58:00,
2013-10-14 13:59:00,68.9,57.5,30.27,NE,48,0.0,0.0,67,0.00,,,0.00,Wunderground v.1.15,2013-10-14 17:59:00,
2013-10-14 14:00:00,69.0,58.0,30.27,NE,48,0.0,0.0,68,0.00,,,0.00,Wunderground v.1.15,2013-10-14 18:00:00,
2013-10-14 14:01:00,55.9,54.2,30.17,NNE,26,0.0,0.0,94,0.00,,,0.00,Wunderground v.1.15,2013-10-14 18:01:00,
2013-10-14 14:02:00,56.0,54.3,30.17,NNE,26,0.0,0.0,94,0.00,,,0.00,Wunderground v.1.15,2013-10-14 18:02:00,
2013-10-14 14:03:00,56.0,54.3,30.17,NNE,26,0.0,0.0,94,0.00,,,0.00,Wunderground v.1.15,2013-10-14 18:03:00,
2013-10-14 14:04:00,69.3,58.3,30.27,NE,48,0.0,0.0,68,0.00,,,0.00,Wunderground v.1.15,2013-10-14 18:04:00,
2013-10-14 14:05:00,56.0,54.3,30.17,NNE,26,0.0,0.0,94,0.00,,,0.00,Wunderground v.1.15,2013-10-14 18:05:00,
2013-10-14 14:06:00,69.4,58.4,30.27,NE,48,0.0,0.0,68,0.00,,,0.00,Wunderground v.1.15,2013-10-14 18:06:00,
2013-10-14 14:07:00,69.5,58.1,30.26,NE,48,0.0,0.0,67,0.00,,,0.00,Wunderground v.1.15,2013-10-14 18:07:00,
2013-10-14 14:08:00,69.5,58.1,30.26,NE,48,0.0,0.0,67,0.00,,,0.00,Wunderground v.1.15,2013-10-14 18:08:00,
2013-10-14 14:09:00,56.0,54.3,30.17,NNE,26,0.0,0.0,94,0.00,,,0.00,Wunderground v.1.15,2013-10-14 18:09:00,
2013-10-14 14:10:00,56.0,54.3,30.17,NNE,26,0.0,0.0,94,0.00,,,0.00,Wunderground v.1.15,2013-10-14 18:10:00,
2013-10-14 14:11:00,69.8,57.9,30.26,NE,48,0.0,0.0,66,0.00,,,0.00,Wunderground v.1.15,2013-10-14 18:11:00,
2013-10-14 14:12:00,69.8,57.9,30.26,NE,48,0.0,0.0,66,0.00,,,0.00,Wunderground v.1.15,2013-10-14 18:12:00,
2013-10-14 14:13:00,56.0,54.3,30.17,NNE,26,0.0,0.0,94,0.00,,,0.00,Wunderground v.1.15,2013-10-14 18:13:00,
2013-10-14 14:14:00,69.8,57.1,30.26,NE,48,0.0,0.0,64,0.00,,,0.00,Wunderground v.1.15,2013-10-14 18:14:00,
2013-10-14 14:15:00,56.0,54.3,30.17,NNE,26,0.0,0.0,94,0.00,,,0.00,Wunderground v.1.15,2013-10-14 18:15:00,
2013-10-14 14:16:00,69.8,57.9,30.26,NE,48,0.0,0.0,66,0.00,,,0.00,Wunderground v.1.15,2013-10-14 18:16:00,
2013-10-14 14:17:00,69.8,57.5,30.26,NE,48,0.0,0.0,65,0.00,,,0.00,Wunderground v.1.15,2013-10-14 18:17:00,
2013-10-14 14:18:00,69.8,57.1,30.26,NE,48,0.0,1.0,64,0.00,,,0.00,Wunderground v.1.15,2013-10-14 18:18:00,
2013-10-14 14:19:00,69.8,57.5,30.26,NE,48,0.0,1.0,65,0.00,,,0.00,Wunderground v.1.15,2013-10-14 18:19:00,
2013-10-14 14:20:00,69.8,57.9,30.26,NE,48,0.0,1.0,66,0.00,,,0.00,Wunderground v.1.15,2013-10-14 18:20:00,
2013-10-14 14:21:00,56.0,54.3,30.17,NNE,26,0.0,0.0,94,0.00,,,0.00,Wunderground v.1.15,2013-10-14 18:21:00,
2013-10-14 14:22:00,69.9,58.0,30.25,NE,48,0.0,1.0,66,0.00,,,0.00,Wunderground v.1.15,2013-10-14 18:22:00,
2013-10-14 14:23:00,69.9,57.6,30.25,NE,48,0.0,1.0,65,0.00,,,0.00,Wunderground v.1.15,2013-10-14 18:23:00,
2013-10-14 14:24:00,69.9,58.4,30.25,NE,48,0.0,0.0,67,0.00,,,0.00,Wunderground v.1.15,2013-10-14 18:24:00,
2013-10-14 14:25:00,69.9,58.4,30.25,NE,46,0.0,1.0,67,0.00,,,0.00,Wunderground v.1.15,2013-10-14 18:25:00,
2013-10-14 14:27:00,55.9,54.2,30.17,NNE,26,0.0,0.0,94,0.00,,,0.00,Wunderground v.1.15,2013-10-14 18:27:00,
2013-10-14 14:28:00,55.9,54.2,30.16,NNE,26,0.0,0.0,94,0.00,,,0.00,Wunderground v.1.15,2013-10-14 18:28:00,
2013-10-14 14:29:00,70.1,58.6,30.25,NE,46,0.0,1.0,67,0.00,,,0.00,Wunderground v.1.15,2013-10-14 18:29:00,
2013-10-14 14:30:00,70.2,58.7,30.25,NE,46,0.0,1.0,67,0.00,,,0.00,Wunderground v.1.15,2013-10-14 18:30:00,
2013-10-14 14:32:00,55.9,54.2,30.16,NNE,26,0.0,0.0,94,0.00,,,0.00,Wunderground v.1.15,2013-10-14 18:32:00,
2013-10-14 14:33:00,70.3,58.0,30.24,NE,46,0.0,1.0,65,0.00,,,0.00,Wunderground v.1.15,2013-10-14 18:33:00,
2013-10-14 14:34:00,70.4,58.5,30.24,East,84,0.0,1.0,66,0.00,,,0.00,Wunderground v.1.15,2013-10-14 18:34:00,
2013-10-14 14:35:00,70.3,58.8,30.24,East,84,0.0,1.0,67,0.00,,,0.00,Wunderground v.1.15,2013-10-14 18:35:00,
2013-10-14 14:36:00,55.9,54.2,30.16,NNE,26,0.0,0.0,94,0.00,,,0.00,Wunderground v.1.15,2013-10-14 18:36:00,
2013-10-14 14:37:00,70.3,57.5,30.24,East,84,0.0,1.0,64,0.00,,,0.00,Wunderground v.1.15,2013-10-14 18:37:00,
2013-10-14 14:38:00,70.3,58.8,30.24,East,84,0.0,1.0,67,0.00,,,0.00,Wunderground v.1.15,2013-10-14 18:38:00,
2013-10-14 14:39:00,55.9,54.5,30.16,NNE,26,0.0,0.0,95,0.00,,,0.00,Wunderground v.1.15,2013-10-14 18:39:00,
2013-10-14 14:40:00,55.9,54.5,30.16,NNE,26,0.0,0.0,95,0.00,,,0.00,Wunderground v.1.15,2013-10-14 18:40:00,
2013-10-14 14:41:00,55.9,54.5,30.16,NNE,26,0.0,0.0,95,0.00,,,0.00,Wunderground v.1.15,2013-10-14 18:41:00,
2013-10-14 14:42:00,70.6,58.3,30.24,East,84,0.0,1.0,65,0.00,,,0.00,Wunderground v.1.15,2013-10-14 18:42:00,
2013-10-14 14:43:00,55.9,54.5,30.17,NNE,26,0.0,0.0,95,0.00,,,0.00,Wunderground v.1.15,2013-10-14 18:43:00,
2013-10-14 14:44:00,70.8,58.0,30.23,East,84,0.0,0.0,64,0.00,,,0.00,Wunderground v.1.15,2013-10-14 18:44:00,
2013-10-14 14:45:00,70.8,58.4,30.23,East,84,0.0,1.0,65,0.00,,,0.00,Wunderground v.1.15,2013-10-14 18:45:00,
2013-10-14 14:46:00,70.9,58.1,30.24,East,84,0.0,1.0,64,0.00,,,0.00,Wunderground v.1.15,2013-10-14 18:46:00,
2013-10-14 14:47:00,70.9,57.7,30.23,East,84,0.0,1.0,63,0.00,,,0.00,Wunderground v.1.15,2013-10-14 18:47:00,
2013-10-14 14:48:00,55.8,54.4,30.16,NNE,26,0.0,0.0,95,0.00,,,0.00,Wunderground v.1.15,2013-10-14 18:48:00,
2013-10-14 14:49:00,71.0,57.3,30.24,East,86,0.0,1.0,62,0.00,,,0.00,Wunderground v.1.15,2013-10-14 18:49:00,
2013-10-14 14:50:00,71.0,57.3,30.24,East,86,0.0,1.0,62,0.00,,,0.00,Wunderground v.1.15,2013-10-14 18:50:00,
2013-10-14 14:51:00,55.8,54.4,30.16,NNE,26,0.0,0.0,95,0.00,,,0.00,Wunderground v.1.15,2013-10-14 18:51:00,
2013-10-14 14:52:00,55.8,54.4,30.16,NNE,26,0.0,0.0,95,0.00,,,0.00,Wunderground v.1.15,2013-10-14 18:52:00,
2013-10-14 14:53:00,55.7,54.3,30.16,NNE,26,0.0,0.0,95,0.00,,,0.00,Wunderground v.1.15,2013-10-14 18:53:00,
2013-10-14 14:54:00,55.7,54.3,30.16,NNE,26,0.0,0.0,95,0.00,,,0.00,Wunderground v.1.15,2013-10-14 18:54:00,
2013-10-14 14:55:00,71.1,57.9,30.24,NE,54,0.0,1.0,63,0.00,,,0.00,Wunderground v.1.15,2013-10-14 18:55:00,
2013-10-14 14:56:00,71.1,57.0,30.23,WSW,242,0.0,1.0,61,0.00,,,0.00,Wunderground v.1.15,2013-10-14 18:56:00,
2013-10-14 14:57:00,55.7,54.3,30.16,NNE,26,0.0,0.0,95,0.00,,,0.00,Wunderground v.1.15,2013-10-14 18:57:00,
2013-10-14 14:58:00,55.7,54.3,30.16,NNE,26,0.0,0.0,95,0.00,,,0.00,Wunderground v.1.15,2013-10-14 18:58:00,
2013-10-14 14:59:00,71.2,58.0,30.24,WSW,242,0.0,1.0,63,0.00,,,0.00,Wunderground v.1.15,2013-10-14 18:59:00,
2013-10-14 15:00:00,55.8,54.4,30.16,NNE,26,0.0,0.0,95,0.00,,,0.00,Wunderground v.1.15,2013-10-14 19:00:00,
2013-10-14 15:01:00,55.8,54.4,30.16,NNE,26,0.0,0.0,95,0.00,,,0.00,Wunderground v.1.15,2013-10-14 19:01:00,
2013-10-14 15:02:00,71.2,57.5,30.23,WSW,242,0.0,1.0,62,0.00,,,0.00,Wunderground v.1.15,2013-10-14 19:02:00,
2013-10-14 15:04:00,71.2,58.0,30.23,WSW,242,0.0,0.0,63,0.00,,,0.00,Wunderground v.1.15,2013-10-14 19:04:00,
2013-10-14 15:06:00,55.8,54.4,30.16,NNE,26,0.0,0.0,95,0.00,,,0.00,Wunderground v.1.15,2013-10-14 19:06:00,
2013-10-14 15:07:00,71.3,57.6,30.23,WSW,242,0.0,0.0,62,0.00,,,0.00,Wunderground v.1.15,2013-10-14 19:07:00,
2013-10-14 15:08:00,71.3,57.6,30.23,WSW,242,0.0,0.0,62,0.00,,,0.00,Wunderground v.1.15,2013-10-14 19:08:00,
2013-10-14 15:09:00,71.3,57.6,30.23,WNW,282,0.0,0.0,62,0.00,,,0.00,Wunderground v.1.15,2013-10-14 19:09:00,
2013-10-14 15:10:00,71.3,58.1,30.23,WNW,282,0.0,0.0,63,0.00,,,0.00,Wunderground v.1.15,2013-10-14 19:10:00,
2013-10-14 15:13:00,71.3,57.6,30.23,East,89,0.0,1.0,62,0.00,,,0.00,Wunderground v.1.15,2013-10-14 19:13:00,
2013-10-14 15:14:00,71.3,58.1,30.23,East,89,0.0,0.0,63,0.00,,,0.00,Wunderground v.1.15,2013-10-14 19:14:00,
2013-10-14 15:15:00,71.3,57.6,30.23,East,89,0.0,0.0,62,0.00,,,0.00,Wunderground v.1.15,2013-10-14 19:15:00,
2013-10-14 15:16:00,55.9,54.5,30.15,NNE,26,0.0,0.0,95,0.00,,,0.00,Wunderground v.1.15,2013-10-14 19:16:00,
2013-10-14 15:17:00,55.9,54.5,30.15,NNE,26,0.0,0.0,95,0.00,,,0.00,Wunderground v.1.15,2013-10-14 19:17:00,
2013-10-14 15:18:00,55.8,54.4,30.15,NNE,26,0.0,0.0,95,0.00,,,0.00,Wunderground v.1.15,2013-10-14 19:18:00,
2013-10-14 15:20:00,71.5,58.2,30.22,East,89,0.0,0.0,63,0.00,,,0.00,Wunderground v.1.15,2013-10-14 19:20:00,
2013-10-14 15:21:00,71.5,58.2,30.22,East,89,0.0,0.0,63,0.00,,,0.00,Wunderground v.1.15,2013-10-14 19:21:00,
2013-10-14 15:22:00,71.6,58.3,30.22,East,89,0.0,0.0,63,0.00,,,0.00,Wunderground v.1.15,2013-10-14 19:22:00,
2013-10-14 15:23:00,71.6,58.3,30.22,East,89,0.0,0.0,63,0.00,,,0.00,Wunderground v.1.15,2013-10-14 19:23:00,
2013-10-14 15:27:00,71.5,56.9,30.22,East,89,0.0,0.0,60,0.00,,,0.00,Wunderground v.1.15,2013-10-14 19:27:00,
2013-10-14 15:29:00,71.5,57.3,30.22,East,89,0.0,0.0,61,0.00,,,0.00,Wunderground v.1.15,2013-10-14 19:29:00,
2013-10-14 15:30:00,71.5,58.2,30.22,East,89,0.0,0.0,63,0.00,,,0.00,Wunderground v.1.15,2013-10-14 19:30:00,
2013-10-14 15:31:00,55.6,54.2,30.15,NNE,26,0.0,0.0,95,0.00,,,0.00,Wunderground v.1.15,2013-10-14 19:31:00,
2013-10-14 15:32:00,71.5,56.4,30.22,East,89,0.0,0.0,59,0.00,,,0.00,Wunderground v.1.15,2013-10-14 19:32:00,
2013-10-14 15:33:00,71.5,56.9,30.23,East,89,0.0,0.0,60,0.00,,,0.00,Wunderground v.1.15,2013-10-14 19:33:00,
2013-10-14 15:37:00,71.4,57.7,30.23,NNW,346,0.0,2.0,62,0.00,,,0.00,Wunderground v.1.15,2013-10-14 19:37:00,
2013-10-14 15:38:00,71.3,57.2,30.23,North,360,0.0,4.0,61,0.00,,,0.00,Wunderground v.1.15,2013-10-14 19:38:00,
2013-10-14 15:39:00,71.2,56.6,30.23,NNW,337,0.0,4.0,60,0.00,,,0.00,Wunderground v.1.15,2013-10-14 19:39:00,
2013-10-14 15:40:00,71.2,57.1,30.23,NNE,18,0.0,4.0,61,0.00,,,0.00,Wunderground v.1.15,2013-10-14 19:40:00,
2013-10-14 15:44:00,71.0,57.3,30.23,ENE,71,0.0,0.0,62,0.00,,,0.00,Wunderground v.1.15,2013-10-14 19:44:00,
2013-10-14 15:46:00,71.0,58.2,30.22,ENE,71,0.0,0.0,64,0.00,,,0.00,Wunderground v.1.15,2013-10-14 19:46:00,
2013-10-14 15:47:00,71.0,57.8,30.22,ENE,71,0.0,0.0,63,0.00,,,0.00,Wunderground v.1.15,2013-10-14 19:47:00,
2013-10-14 15:49:00,71.0,56.9,30.22,ENE,71,0.0,0.0,61,0.00,,,0.00,Wunderground v.1.15,2013-10-14 19:49:00,
2013-10-14 15:53:00,70.9,57.2,30.22,ENE,71,0.0,0.0,62,0.00,,,0.00,Wunderground v.1.15,2013-10-14 19:53:00,
2013-10-14 15:55:00,70.8,57.6,30.22,ENE,71,0.0,0.0,63,0.00,,,0.00,Wunderground v.1.15,2013-10-14 19:55:00,
2013-10-14 15:56:00,70.8,57.6,30.22,ENE,71,0.0,0.0,63,0.00,,,0.00,Wunderground v.1.15,2013-10-14 19:56:00,
2013-10-14 15:58:00,70.8,58.0,30.22,NE,44,0.0,2.0,64,0.00,,,0.00,Wunderground v.1.15,2013-10-14 19:58:00,
2013-10-14 15:59:00,70.7,57.0,30.22,NNE,20,0.0,2.0,62,0.00,,,0.00,Wunderground v.1.15,2013-10-14 19:59:00,
2013-10-14 16:00:00,55.1,53.7,30.15,NNE,26,0.0,0.0,95,0.00,,,0.00,Wunderground v.1.15,2013-10-14 20:00:00,
2013-10-14 16:02:00,55.1,53.7,30.15,NNE,26,0.0,0.0,95,0.00,,,0.00,Wunderground v.1.15,2013-10-14 20:02:00,
2013-10-14 16:03:00,70.8,57.1,30.22,ENE,72,0.0,2.0,62,0.00,,,0.00,Wunderground v.1.15,2013-10-14 20:03:00,
2013-10-14 16:04:00,70.8,57.6,30.22,ENE,71,0.0,0.0,63,0.00,,,0.00,Wunderground v.1.15,2013-10-14 20:04:00,
2013-10-14 16:06:00,70.8,57.6,30.22,ENE,71,0.0,0.0,63,0.00,,,0.00,Wunderground v.1.15,2013-10-14 20:06:00,
2013-10-14 16:08:00,70.8,57.1,30.22,ENE,71,0.0,0.0,62,0.00,,,0.00,Wunderground v.1.15,2013-10-14 20:08:00,
2013-10-14 16:09:00,70.8,56.7,30.22,NNE,26,0.0,0.0,61,0.00,,,0.00,Wunderground v.1.15,2013-10-14 20:09:00,
2013-10-14 16:10:00,70.8,57.6,30.22,NNE,26,0.0,0.0,63,0.00,,,0.00,Wunderground v.1.15,2013-10-14 20:10:00,
2013-10-14 16:11:00,54.9,53.5,30.14,NNE,26,0.0,0.0,95,0.00,,,0.00,Wunderground v.1.15,2013-10-14 20:11:00,
2013-10-14 16:12:00,55.0,53.6,30.14,NNE,26,0.0,0.0,95,0.00,,,0.00,Wunderground v.1.15,2013-10-14 20:12:00,
2013-10-14 16:14:00,70.8,57.6,30.22,NNE,26,0.0,0.0,63,0.00,,,0.00,Wunderground v.1.15,2013-10-14 20:14:00,
2013-10-14 16:16:00,70.8,58.0,30.22,NNE,26,0.0,0.0,64,0.00,,,0.00,Wunderground v.1.15,2013-10-14 20:16:00,
2013-10-14 16:17:00,55.0,53.6,30.14,NNE,26,0.0,0.0,95,0.00,,,0.00,Wunderground v.1.15,2013-10-14 20:17:00,
2013-10-14 16:18:00,70.8,57.1,30.22,NNE,26,0.0,0.0,62,0.00,,,0.00,Wunderground v.1.15,2013-10-14 20:18:00,
2013-10-14 16:19:00,70.8,56.7,30.22,NNE,26,0.0,0.0,61,0.00,,,0.00,Wunderground v.1.15,2013-10-14 20:19:00,
2013-10-14 16:22:00,70.7,57.0,30.22,NNE,26,0.0,0.0,62,0.00,,,0.00,Wunderground v.1.15,2013-10-14 20:22:00,
2013-10-14 16:24:00,70.6,57.8,30.22,NNE,26,0.0,0.0,64,0.00,,,0.00,Wunderground v.1.15,2013-10-14 20:24:00,
2013-10-14 16:26:00,70.4,57.2,30.21,NNE,26,0.0,0.0,63,0.00,,,0.00,Wunderground v.1.15,2013-10-14 20:26:00,
2013-10-14 16:28:00,70.2,57.9,30.21,NNE,26,0.0,0.0,65,0.00,,,0.00,Wunderground v.1.15,2013-10-14 20:28:00,
2013-10-14 16:29:00,70.2,57.9,30.21,NNE,26,0.0,0.0,65,0.00,,,0.00,Wunderground v.1.15,2013-10-14 20:29:00,
2013-10-14 16:30:00,70.1,57.8,30.21,NNE,26,0.0,0.0,65,0.00,,,0.00,Wunderground v.1.15,2013-10-14 20:30:00,
2013-10-14 16:31:00,70.0,58.1,30.21,NNE,26,0.0,0.0,66,0.00,,,0.00,Wunderground v.1.15,2013-10-14 20:31:00,
2013-10-14 16:33:00,69.9,58.0,30.21,NNE,26,0.0,0.0,66,0.00,,,0.00,Wunderground v.1.15,2013-10-14 20:33:00,
2013-10-14 16:34:00,69.8,58.8,30.21,NNE,26,0.0,0.0,68,0.00,,,0.00,Wunderground v.1.15,2013-10-14 20:34:00,
2013-10-14 16:35:00,69.7,58.3,30.21,NNE,26,0.0,0.0,67,0.00,,,0.00,Wunderground v.1.15,2013-10-14 20:35:00,
2013-10-14 16:36:00,69.7,58.3,30.21,NNE,26,0.0,0.0,67,0.00,,,0.00,Wunderground v.1.15,2013-10-14 20:36:00,
2013-10-14 16:39:00,69.4,58.4,30.21,NNE,26,0.0,0.0,68,0.00,,,0.00,Wunderground v.1.15,2013-10-14 20:39:00,
2013-10-14 16:40:00,69.3,58.3,30.21,NNE,26,0.0,0.0,68,0.00,,,0.00,Wunderground v.1.15,2013-10-14 20:40:00,
2013-10-14 16:41:00,69.3,58.3,30.21,NNE,26,0.0,0.0,68,0.00,,,0.00,Wunderground v.1.15,2013-10-14 20:41:00,
2013-10-14 16:43:00,69.2,58.2,30.21,NNE,26,0.0,0.0,68,0.00,,,0.00,Wunderground v.1.15,2013-10-14 20:43:00,
2013-10-14 16:45:00,69.1,57.7,30.21,NNE,26,0.0,0.0,67,0.00,,,0.00,Wunderground v.1.15,2013-10-14 20:45:00,
2013-10-14 16:47:00,69.0,58.4,30.21,NNE,26,0.0,0.0,69,0.00,,,0.00,Wunderground v.1.15,2013-10-14 20:47:00,
2013-10-14 16:48:00,69.0,58.4,30.21,NNE,26,0.0,0.0,69,0.00,,,0.00,Wunderground v.1.15,2013-10-14 20:48:00,
2013-10-14 16:49:00,68.9,58.3,30.21,NNE,26,0.0,0.0,69,0.00,,,0.00,Wunderground v.1.15,2013-10-14 20:49:00,
2013-10-14 16:51:00,68.8,58.2,30.21,NNE,26,0.0,0.0,69,0.00,,,0.00,Wunderground v.1.15,2013-10-14 20:51:00,
2013-10-14 16:52:00,68.7,58.1,30.21,NNE,26,0.0,0.0,69,0.00,,,0.00,Wunderground v.1.15,2013-10-14 20:52:00,
2013-10-14 16:55:00,68.5,58.3,30.21,NNE,26,0.0,0.0,70,0.00,,,0.00,Wunderground v.1.15,2013-10-14 20:55:00,
2013-10-14 16:56:00,68.4,58.2,30.21,NNE,26,0.0,0.0,70,0.00,,,0.00,Wunderground v.1.15,2013-10-14 20:56:00,
2013-10-14 16:57:00,68.3,58.1,30.21,NNE,26,0.0,0.0,70,0.00,,,0.00,Wunderground v.1.15,2013-10-14 20:57:00,
2013-10-14 17:02:00,68.1,58.3,30.21,NNE,26,0.0,0.0,71,0.00,,,0.00,Wunderground v.1.15,2013-10-14 21:02:00,
2013-10-14 17:04:00,68.1,58.3,30.21,NNE,26,0.0,0.0,71,0.00,,,0.00,Wunderground v.1.15,2013-10-14 21:04:00,
2013-10-14 17:06:00,68.1,58.7,30.21,NNE,26,0.0,0.0,72,0.00,,,0.00,Wunderground v.1.15,2013-10-14 21:06:00,
2013-10-14 17:09:00,68.1,59.1,30.21,NNE,26,0.0,0.0,73,0.00,,,0.00,Wunderground v.1.15,2013-10-14 21:09:00,
2013-10-14 17:11:00,68.2,59.6,30.21,NNE,26,0.0,0.0,74,0.00,,,0.00,Wunderground v.1.15,2013-10-14 21:11:00,
2013-10-14 17:12:00,68.3,59.7,30.21,NNE,26,0.0,0.0,74,0.00,,,0.00,Wunderground v.1.15,2013-10-14 21:12:00,
2013-10-14 17:14:00,68.3,59.3,30.21,NNE,26,0.0,0.0,73,0.00,,,0.00,Wunderground v.1.15,2013-10-14 21:14:00,
2013-10-14 17:16:00,68.3,58.9,30.21,NNE,26,0.0,0.0,72,0.00,,,0.00,Wunderground v.1.15,2013-10-14 21:16:00,
2013-10-14 17:17:00,68.3,58.9,30.21,NNE,26,0.0,0.0,72,0.00,,,0.00,Wunderground v.1.15,2013-10-14 21:17:00,
2013-10-14 17:21:00,68.3,59.3,30.21,NNE,26,0.0,0.0,73,0.00,,,0.00,Wunderground v.1.15,2013-10-14 21:21:00,
2013-10-14 17:22:00,68.3,59.7,30.20,NNE,26,0.0,0.0,74,0.00,,,0.00,Wunderground v.1.15,2013-10-14 21:22:00,
2013-10-14 17:25:00,68.1,59.1,30.20,NNE,26,0.0,0.0,73,0.00,,,0.00,Wunderground v.1.15,2013-10-14 21:25:00,
2013-10-14 17:27:00,68.0,58.6,30.20,NNE,26,0.0,0.0,72,0.00,,,0.00,Wunderground v.1.15,2013-10-14 21:27:00,
2013-10-14 17:28:00,68.0,59.0,30.20,NNE,26,0.0,0.0,73,0.00,,,0.00,Wunderground v.1.15,2013-10-14 21:28:00,
2013-10-14 17:33:00,67.6,59.4,30.20,NNE,26,0.0,0.0,75,0.00,,,0.00,Wunderground v.1.15,2013-10-14 21:33:00,
2013-10-14 17:34:00,67.6,59.4,30.20,NNE,26,0.0,0.0,75,0.00,,,0.00,Wunderground v.1.15,2013-10-14 21:34:00,
2013-10-14 17:35:00,67.6,59.8,30.20,NNE,26,0.0,0.0,76,0.00,,,0.00,Wunderground v.1.15,2013-10-14 21:35:00,
2013-10-14 17:36:00,67.5,59.7,30.19,NNE,26,0.0,0.0,76,0.00,,,0.00,Wunderground v.1.15,2013-10-14 21:36:00,
2013-10-14 17:38:00,67.5,59.3,30.19,NNE,26,0.0,0.0,75,0.00,,,0.00,Wunderground v.1.15,2013-10-14 21:38:00,
2013-10-14 17:42:00,67.5,59.7,30.20,NNE,26,0.0,0.0,76,0.00,,,0.00,Wunderground v.1.15,2013-10-14 21:42:00,
2013-10-14 17:45:00,67.5,59.7,30.20,NNE,26,0.0,0.0,76,0.00,,,0.00,Wunderground v.1.15,2013-10-14 21:45:00,
2013-10-14 17:46:00,67.5,60.0,30.20,NNE,26,0.0,0.0,77,0.00,,,0.00,Wunderground v.1.15,2013-10-14 21:46:00,
2013-10-14 17:48:00,67.6,60.1,30.20,NNE,26,0.0,0.0,77,0.00,,,0.00,Wunderground v.1.15,2013-10-14 21:48:00,
2013-10-14 17:51:00,67.6,59.8,30.19,NNE,26,0.0,0.0,76,0.00,,,0.00,Wunderground v.1.15,2013-10-14 21:51:00,
2013-10-14 17:54:00,67.7,60.2,30.19,NNE,26,0.0,0.0,77,0.00,,,0.00,Wunderground v.1.15,2013-10-14 21:54:00,
2013-10-14 17:56:00,67.7,60.2,30.19,NNE,26,0.0,0.0,77,0.00,,,0.00,Wunderground v.1.15,2013-10-14 21:56:00,
2013-10-14 17:57:00,67.7,60.2,30.19,NNE,26,0.0,0.0,77,0.00,,,0.00,Wunderground v.1.15,2013-10-14 21:57:00,
2013-10-14 17:59:00,55.2,54.1,30.13,NNE,26,0.0,0.0,96,0.00,,,0.00,Wunderground v.1.15,2013-10-14 21:59:00,
2013-10-14 18:01:00,67.6,59.4,30.20,NNE,26,0.0,0.0,75,0.00,,,0.00,Wunderground v.1.15,2013-10-14 22:01:00,
2013-10-14 18:02:00,67.6,59.8,30.20,NNE,26,0.0,0.0,76,0.00,,,0.00,Wunderground v.1.15,2013-10-14 22:02:00,
2013-10-14 18:03:00,67.6,59.8,30.20,NNE,26,0.0,0.0,76,0.00,,,0.00,Wunderground v.1.15,2013-10-14 22:03:00,
2013-10-14 18:05:00,55.3,54.2,30.12,NNE,26,0.0,0.0,96,0.00,,,0.00,Wunderground v.1.15,2013-10-14 22:05:00,
2013-10-14 18:06:00,55.2,54.1,30.12,NNE,26,0.0,0.0,96,0.00,,,0.00,Wunderground v.1.15,2013-10-14 22:06:00,
2013-10-14 18:08:00,67.7,59.9,30.19,NNE,26,0.0,0.0,76,0.00,,,0.00,Wunderground v.1.15,2013-10-14 22:08:00,
2013-10-14 18:09:00,67.7,59.5,30.20,NNE,26,0.0,0.0,75,0.00,,,0.00,Wunderground v.1.15,2013-10-14 22:09:00,
2013-10-14 18:11:00,67.7,59.5,30.20,NNE,26,0.0,0.0,75,0.00,,,0.00,Wunderground v.1.15,2013-10-14 22:11:00,
2013-10-14 18:12:00,67.7,59.5,30.20,NNE,26,0.0,0.0,75,0.00,,,0.00,Wunderground v.1.15,2013-10-14 22:12:00,
2013-10-14 18:15:00,55.4,54.3,30.12,NNE,26,0.0,0.0,96,0.00,,,0.00,Wunderground v.1.15,2013-10-14 22:15:00,
2013-10-14 18:16:00,67.5,59.7,30.20,NNE,26,0.0,0.0,76,0.00,,,0.00,Wunderground v.1.15,2013-10-14 22:16:00,
2013-10-14 18:17:00,67.5,59.7,30.20,NNE,26,0.0,0.0,76,0.00,,,0.00,Wunderground v.1.15,2013-10-14 22:17:00,
2013-10-14 18:21:00,67.2,59.7,30.20,NNE,26,0.0,0.0,77,0.00,,,0.00,Wunderground v.1.15,2013-10-14 22:21:00,
2013-10-14 18:24:00,66.9,59.1,30.20,NNE,26,0.0,0.0,76,0.00,,,0.00,Wunderground v.1.15,2013-10-14 22:24:00,
2013-10-14 18:25:00,66.8,59.4,30.20,NNE,26,0.0,0.0,77,0.00,,,0.00,Wunderground v.1.15,2013-10-14 22:25:00,
2013-10-14 18:27:00,66.7,59.3,30.20,NNE,26,0.0,0.0,77,0.00,,,0.00,Wunderground v.1.15,2013-10-14 22:27:00,
2013-10-14 18:31:00,66.4,59.3,30.20,NNE,26,0.0,0.0,78,0.00,,,0.00,Wunderground v.1.15,2013-10-14 22:31:00,
2013-10-14 18:33:00,66.2,58.8,30.20,NNE,26,0.0,0.0,77,0.00,,,0.00,Wunderground v.1.15,2013-10-14 22:33:00,
2013-10-14 18:34:00,66.1,58.7,30.20,NNE,26,0.0,0.0,77,0.00,,,0.00,Wunderground v.1.15,2013-10-14 22:34:00,
2013-10-14 18:35:00,66.1,58.7,30.20,NNE,26,0.0,0.0,77,0.00,,,0.00,Wunderground v.1.15,2013-10-14 22:35:00,
2013-10-14 18:36:00,66.0,58.6,30.20,NNE,26,0.0,0.0,77,0.00,,,0.00,Wunderground v.1.15,2013-10-14 22:36:00,
2013-10-14 18:37:00,65.9,58.1,30.20,NNE,26,0.0,0.0,76,0.00,,,0.00,Wunderground v.1.15,2013-10-14 22:37:00,
2013-10-14 18:41:00,65.7,57.6,30.20,NNE,26,0.0,0.0,75,0.00,,,0.00,Wunderground v.1.15,2013-10-14 22:41:00,
2013-10-14 18:42:00,65.7,57.6,30.20,NNE,26,0.0,0.0,75,0.00,,,0.00,Wunderground v.1.15,2013-10-14 22:42:00,
2013-10-14 18:43:00,65.6,57.5,30.20,NNE,26,0.0,0.0,75,0.00,,,0.00,Wunderground v.1.15,2013-10-14 22:43:00,
2013-10-14 18:44:00,65.6,57.5,30.20,NNE,26,0.0,0.0,75,0.00,,,0.00,Wunderground v.1.15,2013-10-14 22:44:00,
2013-10-14 18:45:00,55.4,54.3,30.12,NNE,26,0.0,0.0,96,0.00,,,0.00,Wunderground v.1.15,2013-10-14 22:45:00,
2013-10-14 18:48:00,65.5,57.4,30.20,NNE,26,0.0,0.0,75,0.00,,,0.00,Wunderground v.1.15,2013-10-14 22:48:00,
2013-10-14 18:50:00,65.4,57.3,30.20,NNE,26,0.0,0.0,75,0.00,,,0.00,Wunderground v.1.15,2013-10-14 22:50:00,
2013-10-14 18:51:00,65.3,56.8,30.20,NNE,26,0.0,0.0,74,0.00,,,0.00,Wunderground v.1.15,2013-10-14 22:51:00,
2013-10-14 18:52:00,55.5,54.4,30.11,NNE,26,0.0,0.0,96,0.00,,,0.00,Wunderground v.1.15,2013-10-14 22:52:00,
2013-10-14 18:53:00,65.2,56.7,30.20,NNE,26,0.0,0.0,74,0.00,,,0.00,Wunderground v.1.15,2013-10-14 22:53:00,
2013-10-14 18:54:00,55.5,54.4,30.11,NNE,26,0.0,0.0,96,0.00,,,0.00,Wunderground v.1.15,2013-10-14 22:54:00,
2013-10-14 18:56:00,65.1,56.6,30.20,NNE,26,0.0,0.0,74,0.00,,,0.00,Wunderground v.1.15,2013-10-14 22:56:00,
2013-10-14 18:58:00,65.0,56.5,30.20,NNE,26,0.0,0.0,74,0.00,,,0.00,Wunderground v.1.15,2013-10-14 22:58:00,
2013-10-14 18:59:00,64.9,56.8,30.20,NNE,26,0.0,0.0,75,0.00,,,0.00,Wunderground v.1.15,2013-10-14 22:59:00,
2013-10-14 19:02:00,64.7,56.6,30.20,NNE,26,0.0,0.0,75,0.00,,,0.00,Wunderground v.1.15,2013-10-14 23:02:00,
2013-10-14 19:03:00,64.7,56.6,30.20,NNE,26,0.0,0.0,75,0.00,,,0.00,Wunderground v.1.15,2013-10-14 23:03:00,
2013-10-14 19:04:00,64.6,56.5,30.20,NNE,26,0.0,0.0,75,0.00,,,0.00,Wunderground v.1.15,2013-10-14 23:04:00,
2013-10-14 19:05:00,64.6,56.5,30.20,NNE,26,0.0,0.0,75,0.00,,,0.00,Wunderground v.1.15,2013-10-14 23:05:00,
2013-10-14 19:07:00,55.6,54.5,30.11,NNE,26,0.0,0.0,96,0.00,,,0.00,Wunderground v.1.15,2013-10-14 23:07:00,
2013-10-14 19:08:00,64.4,56.3,30.20,NNE,26,0.0,0.0,75,0.00,,,0.00,Wunderground v.1.15,2013-10-14 23:08:00,
2013-10-14 19:09:00,64.3,56.2,30.19,NNE,26,0.0,0.0,75,0.00,,,0.00,Wunderground v.1.15,2013-10-14 23:09:00,
2013-10-14 19:10:00,55.6,54.5,30.11,NNE,26,0.0,0.0,96,0.00,,,0.00,Wunderground v.1.15,2013-10-14 23:10:00,
2013-10-14 19:11:00,55.6,54.5,30.11,NNE,26,0.0,0.0,96,0.00,,,0.00,Wunderground v.1.15,2013-10-14 23:11:00,
2013-10-14 19:12:00,64.2,56.1,30.20,NNE,26,0.0,0.0,75,0.00,,,0.00,Wunderground v.1.15,2013-10-14 23:12:00,
2013-10-14 19:14:00,64.1,56.0,30.20,NNE,26,0.0,0.0,75,0.00,,,0.00,Wunderground v.1.15,2013-10-14 23:14:00,
2013-10-14 19:16:00,55.7,54.6,30.11,NNE,26,0.0,0.0,96,0.00,,,0.00,Wunderground v.1.15,2013-10-14 23:16:00,
2013-10-14 19:17:00,64.0,55.9,30.20,NNE,26,0.0,0.0,75,0.00,,,0.00,Wunderground v.1.15,2013-10-14 23:17:00,
2013-10-14 19:18:00,64.0,55.9,30.19,NNE,26,0.0,0.0,75,0.00,,,0.00,Wunderground v.1.15,2013-10-14 23:18:00,
2013-10-14 19:19:00,63.9,55.8,30.20,NNE,26,0.0,0.0,75,0.00,,,0.00,Wunderground v.1.15,2013-10-14 23:19:00,
2013-10-14 19:20:00,63.9,55.8,30.20,NNE,26,0.0,0.0,75,0.00,,,0.00,Wunderground v.1.15,2013-10-14 23:20:00,
2013-10-14 19:21:00,63.9,55.8,30.19,NNE,26,0.0,0.0,75,0.00,,,0.00,Wunderground v.1.15,2013-10-14 23:21:00,
2013-10-14 19:23:00,63.8,55.7,30.19,NNE,26,0.0,0.0,75,0.00,,,0.00,Wunderground v.1.15,2013-10-14 23:23:00,
2013-10-14 19:25:00,63.7,56.0,30.19,NNE,26,0.0,0.0,76,0.00,,,0.00,Wunderground v.1.15,2013-10-14 23:25:00,
2013-10-14 19:26:00,63.6,55.9,30.19,NNE,26,0.0,0.0,76,0.00,,,0.00,Wunderground v.1.15,2013-10-14 23:26:00,
2013-10-14 19:28:00,63.6,55.9,30.20,NNE,26,0.0,0.0,76,0.00,,,0.00,Wunderground v.1.15,2013-10-14 23:28:00,
2013-10-14 19:32:00,63.5,55.8,30.20,NNE,26,0.0,0.0,76,0.00,,,0.00,Wunderground v.1.15,2013-10-14 23:32:00,
2013-10-14 19:33:00,63.4,55.7,30.20,NNE,26,0.0,0.0,76,0.00,,,0.00,Wunderground v.1.15,2013-10-14 23:33:00,
2013-10-14 19:34:00,63.4,55.7,30.20,NNE,26,0.0,0.0,76,0.00,,,0.00,Wunderground v.1.15,2013-10-14 23:34:00,
2013-10-14 19:35:00,63.4,55.7,30.20,NNE,26,0.0,0.0,76,0.00,,,0.00,Wunderground v.1.15,2013-10-14 23:35:00,
2013-10-14 19:37:00,63.3,56.0,30.20,NNE,26,0.0,0.0,77,0.00,,,0.00,Wunderground v.1.15,2013-10-14 23:37:00,
2013-10-14 19:39:00,63.2,55.9,30.20,NNE,26,0.0,0.0,77,0.00,,,0.00,Wunderground v.1.15,2013-10-14 23:39:00,
2013-10-14 19:42:00,63.1,55.8,30.20,NNE,26,0.0,0.0,77,0.00,,,0.00,Wunderground v.1.15,2013-10-14 23:42:00,
2013-10-14 19:46:00,63.0,55.7,30.20,NNE,26,0.0,0.0,77,0.00,,,0.00,Wunderground v.1.15,2013-10-14 23:46:00,
2013-10-14 19:47:00,62.9,55.9,30.20,NNE,26,0.0,0.0,78,0.00,,,0.00,Wunderground v.1.15,2013-10-14 23:47:00,
2013-10-14 19:48:00,62.9,55.9,30.20,NNE,26,0.0,0.0,78,0.00,,,0.00,Wunderground v.1.15,2013-10-14 23:48:00,
2013-10-14 19:49:00,62.9,55.9,30.20,NNE,26,0.0,0.0,78,0.00,,,0.00,Wunderground v.1.15,2013-10-14 23:49:00,
2013-10-14 19:51:00,62.8,55.8,30.20,NNE,26,0.0,0.0,78,0.00,,,0.00,Wunderground v.1.15,2013-10-14 23:51:00,
2013-10-14 19:52:00,62.8,55.8,30.20,NNE,26,0.0,0.0,78,0.00,,,0.00,Wunderground v.1.15,2013-10-14 23:52:00,
2013-10-14 19:54:00,62.7,56.1,30.20,NNE,26,0.0,0.0,79,0.00,,,0.00,Wunderground v.1.15,2013-10-14 23:54:00,
2013-10-14 19:57:00,62.6,56.0,30.20,NNE,26,0.0,0.0,79,0.00,,,0.00,Wunderground v.1.15,2013-10-14 23:57:00,
2013-10-14 19:58:00,62.6,56.0,30.20,NNE,26,0.0,0.0,79,0.00,,,0.00,Wunderground v.1.15,2013-10-14 23:58:00,
2013-10-14 19:59:00,62.6,56.0,30.20,NNE,26,0.0,0.0,79,0.00,,,0.00,Wunderground v.1.15,2013-10-14 23:59:00,
2013-10-14 20:00:00,62.6,56.0,30.20,NNE,26,0.0,0.0,79,0.00,,,0.00,Wunderground v.1.15,2013-10-15 00:00:00,
2013-10-14 20:01:00,62.5,55.5,30.20,NNE,26,0.0,0.0,78,0.00,,,0.00,Wunderground v.1.15,2013-10-15 00:01:00,
2013-10-14 20:05:00,62.5,55.5,30.20,NNE,26,0.0,0.0,78,0.00,,,0.00,Wunderground v.1.15,2013-10-15 00:05:00,
2013-10-14 20:07:00,62.4,55.4,30.20,NNE,26,0.0,0.0,78,0.00,,,0.00,Wunderground v.1.15,2013-10-15 00:07:00,
2013-10-14 20:08:00,62.4,55.4,30.19,NNE,26,0.0,0.0,78,0.00,,,0.00,Wunderground v.1.15,2013-10-15 00:08:00,
2013-10-14 20:10:00,62.3,55.4,30.20,NNE,26,0.0,0.0,78,0.00,,,0.00,Wunderground v.1.15,2013-10-15 00:10:00,
2013-10-14 20:11:00,62.3,55.4,30.19,NNE,26,0.0,0.0,78,0.00,,,0.00,Wunderground v.1.15,2013-10-15 00:11:00,
2013-10-14 20:13:00,62.2,55.6,30.19,NNE,26,0.0,0.0,79,0.00,,,0.00,Wunderground v.1.15,2013-10-15 00:13:00,
2013-10-14 20:14:00,62.2,55.6,30.20,NNE,26,0.0,0.0,79,0.00,,,0.00,Wunderground v.1.15,2013-10-15 00:14:00,
2013-10-14 20:15:00,62.2,55.6,30.20,NNE,26,0.0,0.0,79,0.00,,,0.00,Wunderground v.1.15,2013-10-15 00:15:00,
2013-10-14 20:19:00,62.1,55.5,30.19,NNE,26,0.0,0.0,79,0.00,,,0.00,Wunderground v.1.15,2013-10-15 00:19:00,
2013-10-14 20:20:00,62.0,55.4,30.19,NNE,26,0.0,0.0,79,0.00,,,0.00,Wunderground v.1.15,2013-10-15 00:20:00,
2013-10-14 20:21:00,62.0,55.4,30.19,NNE,26,0.0,0.0,79,0.00,,,0.00,Wunderground v.1.15,2013-10-15 00:21:00,
2013-10-14 20:22:00,62.0,55.4,30.19,NNE,26,0.0,0.0,79,0.00,,,0.00,Wunderground v.1.15,2013-10-15 00:22:00,
2013-10-14 20:25:00,61.9,55.3,30.20,NNE,26,0.0,0.0,79,0.00,,,0.00,Wunderground v.1.15,2013-10-15 00:25:00,
2013-10-14 20:26:00,61.8,55.2,30.20,NNE,26,0.0,0.0,79,0.00,,,0.00,Wunderground v.1.15,2013-10-15 00:26:00,
2013-10-14 20:28:00,61.8,55.2,30.20,NNE,26,0.0,0.0,79,0.00,,,0.00,Wunderground v.1.15,2013-10-15 00:28:00,
2013-10-14 20:29:00,61.7,55.1,30.20,NNE,26,0.0,0.0,79,0.00,,,0.00,Wunderground v.1.15,2013-10-15 00:29:00,
2013-10-14 20:33:00,61.6,55.0,30.20,NNE,26,0.0,0.0,79,0.00,,,0.00,Wunderground v.1.15,2013-10-15 00:33:00,
2013-10-14 20:34:00,61.5,55.3,30.20,NNE,26,0.0,0.0,80,0.00,,,0.00,Wunderground v.1.15,2013-10-15 00:34:00,
2013-10-14 20:35:00,61.5,55.3,30.20,NNE,26,0.0,0.0,80,0.00,,,0.00,Wunderground v.1.15,2013-10-15 00:35:00,
2013-10-14 20:39:00,61.4,55.2,30.20,NNE,26,0.0,0.0,80,0.00,,,0.00,Wunderground v.1.15,2013-10-15 00:39:00,
2013-10-14 20:40:00,61.3,55.1,30.20,NNE,26,0.0,0.0,80,0.00,,,0.00,Wunderground v.1.15,2013-10-15 00:40:00,
2013-10-14 20:41:00,61.3,55.1,30.20,NNE,26,0.0,0.0,80,0.00,,,0.00,Wunderground v.1.15,2013-10-15 00:41:00,
2013-10-14 20:42:00,61.3,55.4,30.20,NNE,26,0.0,0.0,81,0.00,,,0.00,Wunderground v.1.15,2013-10-15 00:42:00,
2013-10-14 20:43:00,61.3,55.4,30.20,NNE,26,0.0,0.0,81,0.00,,,0.00,Wunderground v.1.15,2013-10-15 00:43:00,
2013-10-14 20:44:00,61.3,55.4,30.20,NNE,26,0.0,0.0,81,0.00,,,0.00,Wunderground v.1.15,2013-10-15 00:44:00,
2013-10-14 20:47:00,61.2,55.3,30.20,NNE,26,0.0,0.0,81,0.00,,,0.00,Wunderground v.1.15,2013-10-15 00:47:00,
2013-10-14 20:48:00,61.2,55.7,30.19,NNE,26,0.0,0.0,82,0.00,,,0.00,Wunderground v.1.15,2013-10-15 00:48:00,
2013-10-14 20:49:00,61.1,55.6,30.19,NNE,26,0.0,0.0,82,0.00,,,0.00,Wunderground v.1.15,2013-10-15 00:49:00,
2013-10-14 20:50:00,61.1,55.6,30.19,NNE,26,0.0,0.0,82,0.00,,,0.00,Wunderground v.1.15,2013-10-15 00:50:00,
2013-10-14 20:52:00,61.0,55.5,30.19,NNE,26,0.0,0.0,82,0.00,,,0.00,Wunderground v.1.15,2013-10-15 00:52:00,
2013-10-14 20:53:00,61.0,55.5,30.19,NNE,26,0.0,0.0,82,0.00,,,0.00,Wunderground v.1.15,2013-10-15 00:53:00,
2013-10-14 20:54:00,61.0,55.5,30.19,NNE,26,0.0,0.0,82,0.00,,,0.00,Wunderground v.1.15,2013-10-15 00:54:00,
2013-10-14 20:56:00,60.9,55.7,30.19,NNE,26,0.0,0.0,83,0.00,,,0.00,Wunderground v.1.15,2013-10-15 00:56:00,
2013-10-14 20:58:00,60.9,55.7,30.19,NNE,26,0.0,0.0,83,0.00,,,0.00,Wunderground v.1.15,2013-10-15 00:58:00,
2013-10-14 20:59:00,60.8,55.9,30.19,NNE,26,0.0,0.0,84,0.00,,,0.00,Wunderground v.1.15,2013-10-15 00:59:00,
2013-10-14 21:01:00,60.8,55.9,30.19,NNE,26,0.0,0.0,84,0.00,,,0.00,Wunderground v.1.15,2013-10-15 01:01:00,
2013-10-14 21:02:00,60.7,55.8,30.19,NNE,26,0.0,0.0,84,0.00,,,0.00,Wunderground v.1.15,2013-10-15 01:02:00,
2013-10-14 21:06:00,60.6,56.1,30.19,NNE,26,0.0,0.0,85,0.00,,,0.00,Wunderground v.1.15,2013-10-15 01:06:00,
2013-10-14 21:08:00,60.5,56.0,30.19,NNE,26,0.0,0.0,85,0.00,,,0.00,Wunderground v.1.15,2013-10-15 01:08:00,
2013-10-14 21:09:00,60.5,56.0,30.19,NNE,26,0.0,0.0,85,0.00,,,0.00,Wunderground v.1.15,2013-10-15 01:09:00,
2013-10-14 21:10:00,60.4,55.9,30.19,NNE,26,0.0,0.0,85,0.00,,,0.00,Wunderground v.1.15,2013-10-15 01:10:00,
2013-10-14 21:11:00,60.4,55.9,30.19,NNE,26,0.0,0.0,85,0.00,,,0.00,Wunderground v.1.15,2013-10-15 01:11:00,
2013-10-14 21:15:00,60.2,55.7,30.19,NNE,26,0.0,0.0,85,0.00,,,0.00,Wunderground v.1.15,2013-10-15 01:15:00,
2013-10-14 21:16:00,60.2,56.0,30.19,NNE,26,0.0,0.0,86,0.00,,,0.00,Wunderground v.1.15,2013-10-15 01:16:00,
2013-10-14 21:17:00,60.2,56.0,30.19,NNE,26,0.0,0.0,86,0.00,,,0.00,Wunderground v.1.15,2013-10-15 01:17:00,
2013-10-14 21:18:00,60.1,55.9,30.19,NNE,26,0.0,0.0,86,0.00,,,0.00,Wunderground v.1.15,2013-10-15 01:18:00,
2013-10-14 21:20:00,60.0,55.8,30.19,NNE,26,0.0,0.0,86,0.00,,,0.00,Wunderground v.1.15,2013-10-15 01:20:00,
2013-10-14 21:21:00,60.0,55.8,30.19,NNE,26,0.0,0.0,86,0.00,,,0.00,Wunderground v.1.15,2013-10-15 01:21:00,
2013-10-14 21:22:00,59.9,55.7,30.19,NNE,26,0.0,0.0,86,0.00,,,0.00,Wunderground v.1.15,2013-10-15 01:22:00,
2013-10-14 21:25:00,59.8,55.6,30.19,NNE,26,0.0,0.0,86,0.00,,,0.00,Wunderground v.1.15,2013-10-15 01:25:00,
2013-10-14 21:26:00,59.8,55.9,30.19,NNE,26,0.0,0.0,87,0.00,,,0.00,Wunderground v.1.15,2013-10-15 01:26:00,
2013-10-14 21:27:00,59.8,55.9,30.19,NNE,26,0.0,0.0,87,0.00,,,0.00,Wunderground v.1.15,2013-10-15 01:27:00,
2013-10-14 21:29:00,59.7,55.8,30.19,NNE,26,0.0,0.0,87,0.00,,,0.00,Wunderground v.1.15,2013-10-15 01:29:00,
2013-10-14 21:30:00,59.6,55.7,30.19,NNE,26,0.0,0.0,87,0.00,,,0.00,Wunderground v.1.15,2013-10-15 01:30:00,
2013-10-14 21:31:00,59.6,55.7,30.19,NNE,26,0.0,0.0,87,0.00,,,0.00,Wunderground v.1.15,2013-10-15 01:31:00,
2013-10-14 21:36:00,59.3,55.7,30.19,NNE,26,0.0,0.0,88,0.00,,,0.00,Wunderground v.1.15,2013-10-15 01:36:00,
2013-10-14 21:37:00,59.2,55.6,30.19,NNE,26,0.0,0.0,88,0.00,,,0.00,Wunderground v.1.15,2013-10-15 01:37:00,
2013-10-14 21:38:00,59.1,55.5,30.19,NNE,26,0.0,0.0,88,0.00,,,0.00,Wunderground v.1.15,2013-10-15 01:38:00,
2013-10-14 21:39:00,59.1,55.5,30.19,NNE,26,0.0,0.0,88,0.00,,,0.00,Wunderground v.1.15,2013-10-15 01:39:00,
2013-10-14 21:43:00,58.9,55.7,30.19,NNE,26,0.0,0.0,89,0.00,,,0.00,Wunderground v.1.15,2013-10-15 01:43:00,
2013-10-14 21:44:00,58.8,55.6,30.19,NNE,26,0.0,0.0,89,0.00,,,0.00,Wunderground v.1.15,2013-10-15 01:44:00,
2013-10-14 21:46:00,58.8,55.6,30.19,NNE,26,0.0,0.0,89,0.00,,,0.00,Wunderground v.1.15,2013-10-15 01:46:00,
2013-10-14 21:48:00,58.7,55.5,30.19,NNE,26,0.0,0.0,89,0.00,,,0.00,Wunderground v.1.15,2013-10-15 01:48:00,
2013-10-14 21:50:00,58.6,55.4,30.19,NNE,26,0.0,0.0,89,0.00,,,0.00,Wunderground v.1.15,2013-10-15 01:50:00,
2013-10-14 21:52:00,58.6,55.7,30.20,NNE,26,0.0,0.0,90,0.00,,,0.00,Wunderground v.1.15,2013-10-15 01:52:00,
2013-10-14 21:53:00,58.6,55.7,30.20,NNE,26,0.0,0.0,90,0.00,,,0.00,Wunderground v.1.15,2013-10-15 01:53:00,
2013-10-14 21:55:00,58.6,56.0,30.20,NNE,26,0.0,0.0,91,0.00,,,0.00,Wunderground v.1.15,2013-10-15 01:55:00,
2013-10-14 21:56:00,58.6,56.0,30.20,NNE,26,0.0,0.0,91,0.00,,,0.00,Wunderground v.1.15,2013-10-15 01:56:00,
2013-10-14 21:57:00,58.5,55.9,30.20,NNE,26,0.0,0.0,91,0.00,,,0.00,Wunderground v.1.15,2013-10-15 01:57:00,
2013-10-14 21:58:00,58.5,55.9,30.19,NNE,26,0.0,0.0,91,0.00,,,0.00,Wunderground v.1.15,2013-10-15 01:58:00,
2013-10-14 21:59:00,58.5,55.9,30.20,NNE,26,0.0,0.0,91,0.00,,,0.00,Wunderground v.1.15,2013-10-15 01:59:00,
2013-10-14 22:02:00,58.5,55.9,30.19,NNE,26,0.0,0.0,91,0.00,,,0.00,Wunderground v.1.15,2013-10-15 02:02:00,
2013-10-14 22:03:00,58.5,55.9,30.20,NNE,26,0.0,0.0,91,0.00,,,0.00,Wunderground v.1.15,2013-10-15 02:03:00,
2013-10-14 22:09:00,58.5,56.2,30.20,NNE,26,0.0,0.0,92,0.00,,,0.00,Wunderground v.1.15,2013-10-15 02:09:00,
2013-10-14 22:10:00,58.5,56.2,30.20,NNE,26,0.0,0.0,92,0.00,,,0.00,Wunderground v.1.15,2013-10-15 02:10:00,
2013-10-14 22:11:00,58.5,56.2,30.20,NNE,26,0.0,0.0,92,0.00,,,0.00,Wunderground v.1.15,2013-10-15 02:11:00,
2013-10-14 22:12:00,58.5,56.2,30.20,NNE,26,0.0,0.0,92,0.00,,,0.00,Wunderground v.1.15,2013-10-15 02:12:00,
2013-10-14 22:13:00,58.5,56.2,30.20,NNE,26,0.0,0.0,92,0.00,,,0.00,Wunderground v.1.15,2013-10-15 02:13:00,
2013-10-14 22:18:00,58.3,56.0,30.20,NNE,26,0.0,0.0,92,0.00,,,0.00,Wunderground v.1.15,2013-10-15 02:18:00,
2013-10-14 22:20:00,58.3,56.0,30.20,NNE,26,0.0,0.0,92,0.00,,,0.00,Wunderground v.1.15,2013-10-15 02:20:00,
2013-10-14 22:22:00,58.2,55.9,30.20,NNE,26,0.0,0.0,92,0.00,,,0.00,Wunderground v.1.15,2013-10-15 02:22:00,
2013-10-14 22:25:00,58.1,55.8,30.20,NNE,26,0.0,0.0,92,0.00,,,0.00,Wunderground v.1.15,2013-10-15 02:25:00,
2013-10-14 22:26:00,58.1,55.8,30.20,NNE,26,0.0,0.0,92,0.00,,,0.00,Wunderground v.1.15,2013-10-15 02:26:00,
2013-10-14 22:28:00,58.0,55.4,30.20,NNE,26,0.0,0.0,91,0.00,,,0.00,Wunderground v.1.15,2013-10-15 02:28:00,
2013-10-14 22:29:00,58.0,55.4,30.20,NNE,26,0.0,0.0,91,0.00,,,0.00,Wunderground v.1.15,2013-10-15 02:29:00,
2013-10-14 22:31:00,57.9,55.3,30.20,NNE,26,0.0,0.0,91,0.00,,,0.00,Wunderground v.1.15,2013-10-15 02:31:00,
2013-10-14 22:32:00,57.9,55.6,30.20,NNE,26,0.0,0.0,92,0.00,,,0.00,Wunderground v.1.15,2013-10-15 02:32:00,
2013-10-14 22:34:00,57.8,55.5,30.20,NNE,26,0.0,0.0,92,0.00,,,0.00,Wunderground v.1.15,2013-10-15 02:34:00,
2013-10-14 22:36:00,57.7,55.1,30.20,NNE,26,0.0,0.0,91,0.00,,,0.00,Wunderground v.1.15,2013-10-15 02:36:00,
2013-10-14 22:37:00,57.7,55.1,30.20,NNE,26,0.0,0.0,91,0.00,,,0.00,Wunderground v.1.15,2013-10-15 02:37:00,
2013-10-14 22:43:00,57.5,55.2,30.20,NNE,26,0.0,0.0,92,0.00,,,0.00,Wunderground v.1.15,2013-10-15 02:43:00,
2013-10-14 22:44:00,57.5,55.2,30.20,NNE,26,0.0,0.0,92,0.00,,,0.00,Wunderground v.1.15,2013-10-15 02:44:00,
2013-10-14 22:45:00,57.4,55.1,30.20,NNE,26,0.0,0.0,92,0.00,,,0.00,Wunderground v.1.15,2013-10-15 02:45:00,
2013-10-14 22:48:00,57.3,55.0,30.20,NNE,26,0.0,0.0,92,0.00,,,0.00,Wunderground v.1.15,2013-10-15 02:48:00,
2013-10-14 22:49:00,57.3,55.0,30.21,NNE,26,0.0,0.0,92,0.00,,,0.00,Wunderground v.1.15,2013-10-15 02:49:00,
2013-10-14 22:51:00,57.2,54.9,30.21,NNE,26,0.0,0.0,92,0.00,,,0.00,Wunderground v.1.15,2013-10-15 02:51:00,
2013-10-14 22:55:00,57.1,54.8,30.20,NNE,26,0.0,0.0,92,0.00,,,0.00,Wunderground v.1.15,2013-10-15 02:55:00,
2013-10-14 22:56:00,57.1,54.8,30.20,NNE,26,0.0,0.0,92,0.00,,,0.00,Wunderground v.1.15,2013-10-15 02:56:00,
2013-10-14 22:57:00,57.1,54.8,30.20,NNE,26,0.0,0.0,92,0.00,,,0.00,Wunderground v.1.15,2013-10-15 02:57:00,
2013-10-14 22:58:00,57.0,54.7,30.20,NNE,26,0.0,0.0,92,0.00,,,0.00,Wunderground v.1.15,2013-10-15 02:58:00,
2013-10-14 22:59:00,57.0,54.7,30.20,NNE,26,0.0,0.0,92,0.00,,,0.00,Wunderground v.1.15,2013-10-15 02:59:00,
2013-10-14 23:02:00,56.9,54.6,30.20,NNE,26,0.0,0.0,92,0.00,,,0.00,Wunderground v.1.15,2013-10-15 03:02:00,
2013-10-14 23:03:00,56.9,54.6,30.20,NNE,26,0.0,0.0,92,0.00,,,0.00,Wunderground v.1.15,2013-10-15 03:03:00,
2013-10-14 23:04:00,56.9,54.6,30.20,NNE,26,0.0,0.0,92,0.00,,,0.00,Wunderground v.1.15,2013-10-15 03:04:00,
2013-10-14 23:06:00,56.8,54.5,30.20,NNE,26,0.0,0.0,92,0.00,,,0.00,Wunderground v.1.15,2013-10-15 03:06:00,
2013-10-14 23:09:00,56.8,54.5,30.20,NNE,26,0.0,0.0,92,0.00,,,0.00,Wunderground v.1.15,2013-10-15 03:09:00,
2013-10-14 23:10:00,56.8,54.5,30.20,NNE,26,0.0,0.0,92,0.00,,,0.00,Wunderground v.1.15,2013-10-15 03:10:00,
2013-10-14 23:11:00,56.8,54.5,30.20,NNE,26,0.0,0.0,92,0.00,,,0.00,Wunderground v.1.15,2013-10-15 03:11:00,
2013-10-14 23:12:00,56.8,54.5,30.20,NNE,26,0.0,0.0,92,0.00,,,0.00,Wunderground v.1.15,2013-10-15 03:12:00,
2013-10-14 23:14:00,56.7,54.4,30.20,NNE,26,0.0,0.0,92,0.00,,,0.00,Wunderground v.1.15,2013-10-15 03:14:00,
2013-10-14 23:15:00,56.7,54.4,30.20,NNE,26,0.0,0.0,92,0.00,,,0.00,Wunderground v.1.15,2013-10-15 03:15:00,
2013-10-14 23:16:00,56.7,54.4,30.20,NNE,26,0.0,0.0,92,0.00,,,0.00,Wunderground v.1.15,2013-10-15 03:16:00,
2013-10-14 23:18:00,56.7,54.4,30.20,NNE,26,0.0,0.0,92,0.00,,,0.00,Wunderground v.1.15,2013-10-15 03:18:00,
2013-10-14 23:20:00,56.7,54.4,30.20,NNE,26,0.0,0.0,92,0.00,,,0.00,Wunderground v.1.15,2013-10-15 03:20:00,
2013-10-14 23:22:00,56.6,54.3,30.19,NNE,26,0.0,0.0,92,0.00,,,0.00,Wunderground v.1.15,2013-10-15 03:22:00,
2013-10-14 23:23:00,56.6,54.3,30.20,NNE,26,0.0,0.0,92,0.00,,,0.00,Wunderground v.1.15,2013-10-15 03:23:00,
2013-10-14 23:27:00,56.5,54.2,30.20,NNE,26,0.0,0.0,92,0.00,,,0.00,Wunderground v.1.15,2013-10-15 03:27:00,
2013-10-14 23:28:00,56.5,54.2,30.20,NNE,26,0.0,0.0,92,0.00,,,0.00,Wunderground v.1.15,2013-10-15 03:28:00,
2013-10-14 23:30:00,56.5,54.5,30.20,NNE,26,0.0,0.0,93,0.00,,,0.00,Wunderground v.1.15,2013-10-15 03:30:00,
2013-10-14 23:31:00,56.5,54.5,30.20,NNE,26,0.0,0.0,93,0.00,,,0.00,Wunderground v.1.15,2013-10-15 03:31:00,
2013-10-14 23:33:00,56.5,54.5,30.20,NNE,26,0.0,0.0,93,0.00,,,0.00,Wunderground v.1.15,2013-10-15 03:33:00,
2013-10-14 23:35:00,56.5,54.5,30.20,NNE,26,0.0,0.0,93,0.00,,,0.00,Wunderground v.1.15,2013-10-15 03:35:00,
2013-10-14 23:37:00,56.5,54.5,30.20,NNE,26,0.0,0.0,93,0.00,,,0.00,Wunderground v.1.15,2013-10-15 03:37:00,
2013-10-14 23:38:00,56.4,54.4,30.20,NNE,26,0.0,0.0,93,0.00,,,0.00,Wunderground v.1.15,2013-10-15 03:38:00,
2013-10-14 23:39:00,56.4,54.4,30.20,NNE,26,0.0,0.0,93,0.00,,,0.00,Wunderground v.1.15,2013-10-15 03:39:00,
2013-10-14 23:42:00,56.4,54.4,30.20,NNE,26,0.0,0.0,93,0.00,,,0.00,Wunderground v.1.15,2013-10-15 03:42:00,
2013-10-14 23:43:00,56.4,54.4,30.20,NNE,26,0.0,0.0,93,0.00,,,0.00,Wunderground v.1.15,2013-10-15 03:43:00,
2013-10-14 23:46:00,56.3,54.0,30.20,NNE,26,0.0,0.0,92,0.00,,,0.00,Wunderground v.1.15,2013-10-15 03:46:00,
2013-10-14 23:48:00,56.3,54.3,30.20,NNE,26,0.0,0.0,93,0.00,,,0.00,Wunderground v.1.15,2013-10-15 03:48:00,
2013-10-14 23:49:00,56.2,54.2,30.20,NNE,26,0.0,0.0,93,0.00,,,0.00,Wunderground v.1.15,2013-10-15 03:49:00,
2013-10-14 23:51:00,56.2,54.2,30.19,NNE,26,0.0,0.0,93,0.00,,,0.00,Wunderground v.1.15,2013-10-15 03:51:00,
2013-10-14 23:54:00,56.2,54.2,30.19,NNE,26,0.0,0.0,93,0.00,,,0.00,Wunderground v.1.15,2013-10-15 03:54:00,
2013-10-14 23:55:00,56.2,54.2,30.19,NNE,26,0.0,0.0,93,0.00,,,0.00,Wunderground v.1.15,2013-10-15 03:55:00,
2013-10-14 23:56:00,56.2,54.2,30.19,NNE,26,0.0,0.0,93,0.00,,,0.00,Wunderground v.1.15,2013-10-15 03:56:00,
2013-10-14 23:57:00,56.2,54.2,30.19,NNE,26,0.0,0.0,93,0.00,,,0.00,Wunderground v.1.15,2013-10-15 03:57:00,